Time,TemperatureF,DewpointF,PressureIn,WindDirection,WindDirectionDegrees,WindSpeedMPH,WindSpeedGustMPH,Humidity,HourlyPrecipIn,Conditions,Clouds,dailyrainin,SoftwareType,DateUTC
2013-02-16 00:00:00,45.9,31.9,29.56,ENE,68,0.0,0.0,58,0.00,,---,0.00,VWS V14.01,2013-02-15 22:00:00,
2013-02-16 00:01:00,45.9,31.9,29.56,ENE,68,1.1,1.1,58,0.00,,---,0.00,VWS V14.01,2013-02-15 22:01:00,
2013-02-16 00:02:00,45.9,31.9,29.56,ENE,68,0.0,1.1,58,0.00,,---,0.00,VWS V14.01,2013-02-15 22:02:00,
2013-02-16 00:03:00,45.9,31.9,29.56,ENE,68,0.0,0.0,58,0.00,,---,0.00,VWS V14.01,2013-02-15 22:03:00,
2013-02-16 00:04:00,45.9,31.9,29.56,ENE,68,2.2,2.2,58,0.00,,---,0.00,VWS V14.01,2013-02-15 22:04:00,
2013-02-16 00:05:00,45.7,31.8,29.56,ENE,68,0.9,2.2,58,0.00,,---,0.00,VWS V14.01,2013-02-15 22:05:00,
2013-02-16 00:06:00,45.7,31.8,29.56,ENE,68,0.0,0.9,58,0.00,,---,0.00,VWS V14.01,2013-02-15 22:06:00,
2013-02-16 00:07:00,45.7,31.8,29.56,ENE,68,0.0,0.0,58,0.00,,---,0.00,VWS V14.01,2013-02-15 22:07:00,
2013-02-16 00:08:00,45.7,31.8,29.56,ENE,68,1.1,1.1,58,0.00,,---,0.00,VWS V14.01,2013-02-15 22:08:00,
2013-02-16 00:09:00,45.7,32.2,29.56,ENE,68,0.0,1.1,59,0.00,,---,0.00,VWS V14.01,2013-02-15 22:09:00,
2013-02-16 00:10:00,45.7,32.2,29.56,ENE,68,0.0,0.0,59,0.00,,---,0.00,VWS V14.01,2013-02-15 22:10:00,
2013-02-16 00:11:00,45.7,32.2,29.56,ENE,68,1.1,1.1,59,0.00,,---,0.00,VWS V14.01,2013-02-15 22:11:00,
2013-02-16 00:12:00,45.7,32.2,29.56,ENE,68,1.3,1.3,59,0.00,,---,0.00,VWS V14.01,2013-02-15 22:12:00,
2013-02-16 00:13:00,45.7,32.2,29.56,ENE,68,0.9,1.3,59,0.00,,---,0.00,VWS V14.01,2013-02-15 22:13:00,
2013-02-16 00:14:00,45.7,32.2,29.56,ENE,68,0.0,0.9,59,0.00,,---,0.00,VWS V14.01,2013-02-15 22:14:00,
2013-02-16 00:15:00,45.7,32.2,29.56,ENE,68,0.0,0.0,59,0.00,,---,0.00,VWS V14.01,2013-02-15 22:15:00,
2013-02-16 00:16:00,45.7,32.2,29.56,ENE,68,0.0,0.0,59,0.00,,---,0.00,VWS V14.01,2013-02-15 22:16:00,
2013-02-16 00:17:00,45.7,32.2,29.56,ENE,68,0.0,0.0,59,0.00,,---,0.00,VWS V14.01,2013-02-15 22:17:00,
2013-02-16 00:18:00,45.7,32.2,29.56,ENE,68,0.0,0.0,59,0.00,,---,0.00,VWS V14.01,2013-02-15 22:18:00,
2013-02-16 00:19:00,45.7,32.2,29.56,ENE,68,1.6,1.6,59,0.00,,---,0.00,VWS V14.01,2013-02-15 22:19:00,
2013-02-16 00:20:00,45.5,32.0,29.56,ENE,68,0.0,1.6,59,0.00,,---,0.00,VWS V14.01,2013-02-15 22:20:00,
2013-02-16 00:21:00,45.5,32.0,29.56,ENE,68,0.9,0.9,59,0.00,,---,0.00,VWS V14.01,2013-02-15 22:21:00,
2013-02-16 00:22:00,45.5,32.0,29.56,ENE,68,0.0,0.9,59,0.00,,---,0.00,VWS V14.01,2013-02-15 22:22:00,
2013-02-16 00:23:00,45.5,32.0,29.56,ENE,68,1.1,1.1,59,0.00,,---,0.00,VWS V14.01,2013-02-15 22:23:00,
2013-02-16 00:24:00,45.5,32.0,29.56,ENE,68,0.0,1.1,59,0.00,,---,0.00,VWS V14.01,2013-02-15 22:24:00,
2013-02-16 00:25:00,45.5,32.0,29.56,ENE,68,0.0,0.0,59,0.00,,---,0.00,VWS V14.01,2013-02-15 22:25:00,
2013-02-16 00:26:00,45.5,32.0,29.56,ENE,68,0.0,0.0,59,0.00,,---,0.00,VWS V14.01,2013-02-15 22:26:00,
2013-02-16 00:27:00,45.5,32.0,29.56,ENE,68,0.0,0.0,59,0.00,,---,0.00,VWS V14.01,2013-02-15 22:27:00,
2013-02-16 00:28:00,45.5,32.0,29.56,ENE,68,0.0,0.0,59,0.00,,---,0.00,VWS V14.01,2013-02-15 22:28:00,
2013-02-16 00:29:00,45.5,32.4,29.56,ENE,68,0.0,0.0,60,0.00,,---,0.00,VWS V14.01,2013-02-15 22:29:00,
2013-02-16 00:30:00,45.5,32.4,29.56,ENE,68,0.0,0.0,60,0.00,,---,0.00,VWS V14.01,2013-02-15 22:30:00,
2013-02-16 00:31:00,45.5,32.4,29.56,ENE,68,0.0,0.0,60,0.00,,---,0.00,VWS V14.01,2013-02-15 22:31:00,
2013-02-16 00:32:00,45.7,32.6,29.56,ENE,68,0.0,0.0,60,0.00,,---,0.00,VWS V14.01,2013-02-15 22:32:00,
2013-02-16 00:33:00,45.7,32.6,29.56,ENE,68,0.0,0.0,60,0.00,,---,0.00,VWS V14.01,2013-02-15 22:33:00,
2013-02-16 00:34:00,45.7,32.6,29.56,ENE,68,0.0,0.0,60,0.00,,---,0.00,VWS V14.01,2013-02-15 22:34:00,
2013-02-16 00:35:00,45.7,32.6,29.56,ENE,68,0.0,0.0,60,0.00,,---,0.00,VWS V14.01,2013-02-15 22:35:00,
2013-02-16 00:36:00,45.7,32.6,29.56,ENE,68,0.0,0.0,60,0.00,,---,0.00,VWS V14.01,2013-02-15 22:36:00,
2013-02-16 00:37:00,45.5,32.4,29.56,ENE,68,0.0,0.0,60,0.00,,---,0.00,VWS V14.01,2013-02-15 22:37:00,
2013-02-16 00:38:00,45.5,32.4,29.56,ENE,68,0.0,0.0,60,0.00,,---,0.00,VWS V14.01,2013-02-15 22:38:00,
2013-02-16 00:39:00,45.5,32.4,29.56,ENE,68,0.0,0.0,60,0.00,,---,0.00,VWS V14.01,2013-02-15 22:39:00,
2013-02-16 00:40:00,45.5,32.4,29.56,ENE,68,0.0,0.0,60,0.00,,---,0.00,VWS V14.01,2013-02-15 22:40:00,
2013-02-16 00:41:00,45.5,32.4,29.56,ENE,68,0.0,0.0,60,0.00,,---,0.00,VWS V14.01,2013-02-15 22:41:00,
2013-02-16 00:42:00,45.5,32.4,29.56,ENE,68,0.0,0.0,60,0.00,,---,0.00,VWS V14.01,2013-02-15 22:42:00,
2013-02-16 00:43:00,45.5,32.4,29.56,ENE,68,0.0,0.0,60,0.00,,---,0.00,VWS V14.01,2013-02-15 22:43:00,
2013-02-16 00:44:00,45.5,32.4,29.56,ENE,68,0.0,0.0,60,0.00,,---,0.00,VWS V14.01,2013-02-15 22:44:00,
2013-02-16 00:45:00,45.5,32.4,29.56,ENE,68,0.0,0.0,60,0.00,,---,0.00,VWS V14.01,2013-02-15 22:45:00,
2013-02-16 00:46:00,45.5,32.4,29.56,ENE,68,0.0,0.0,60,0.00,,---,0.00,VWS V14.01,2013-02-15 22:46:00,
2013-02-16 00:47:00,45.5,32.4,29.56,ENE,68,0.0,0.0,60,0.00,,---,0.00,VWS V14.01,2013-02-15 22:47:00,
2013-02-16 00:48:00,45.5,32.4,29.56,ENE,68,0.0,0.0,60,0.00,,---,0.00,VWS V14.01,2013-02-15 22:48:00,
2013-02-16 00:49:00,45.5,32.4,29.56,ENE,68,0.0,0.0,60,0.00,,---,0.00,VWS V14.01,2013-02-15 22:49:00,
2013-02-16 00:50:00,45.5,32.4,29.56,ENE,68,0.0,0.0,60,0.00,,---,0.00,VWS V14.01,2013-02-15 22:50:00,
2013-02-16 00:51:00,45.5,32.4,29.56,ENE,68,0.0,0.0,60,0.00,,---,0.00,VWS V14.01,2013-02-15 22:51:00,
2013-02-16 00:52:00,45.5,32.4,29.56,ENE,68,0.0,0.0,60,0.00,,---,0.00,VWS V14.01,2013-02-15 22:52:00,
2013-02-16 00:53:00,45.5,32.4,29.56,ENE,68,0.0,0.0,60,0.00,,---,0.00,VWS V14.01,2013-02-15 22:53:00,
2013-02-16 00:54:00,45.5,32.4,29.56,ENE,68,0.0,0.0,60,0.00,,---,0.00,VWS V14.01,2013-02-15 22:54:00,
2013-02-16 00:55:00,45.3,32.3,29.56,ENE,68,0.0,0.0,60,0.00,,---,0.00,VWS V14.01,2013-02-15 22:55:00,
2013-02-16 00:56:00,45.3,32.3,29.56,ENE,68,0.0,0.0,60,0.00,,---,0.00,VWS V14.01,2013-02-15 22:56:00,
2013-02-16 00:57:00,45.3,32.3,29.56,ENE,68,0.0,0.0,60,0.00,,---,0.00,VWS V14.01,2013-02-15 22:57:00,
2013-02-16 00:58:00,45.5,32.4,29.56,ENE,68,0.0,0.0,60,0.00,,---,0.00,VWS V14.01,2013-02-15 22:58:00,
2013-02-16 00:59:00,45.5,32.4,29.56,ENE,68,0.0,0.0,60,0.00,,---,0.00,VWS V14.01,2013-02-15 22:59:00,
2013-02-16 01:00:00,45.5,32.4,29.56,ENE,68,0.0,0.0,60,0.00,,---,0.00,VWS V14.01,2013-02-15 23:00:00,
2013-02-16 01:01:00,45.5,32.4,29.56,ENE,68,0.0,0.0,60,0.00,,---,0.00,VWS V14.01,2013-02-15 23:01:00,
2013-02-16 01:02:00,45.5,32.4,29.56,ENE,68,1.3,1.3,60,0.00,,---,0.00,VWS V14.01,2013-02-15 23:02:00,
2013-02-16 01:03:00,45.5,32.8,29.56,ENE,68,0.0,1.3,61,0.00,,---,0.00,VWS V14.01,2013-02-15 23:03:00,
2013-02-16 01:04:00,45.5,32.8,29.56,ENE,68,0.0,0.0,61,0.00,,---,0.00,VWS V14.01,2013-02-15 23:04:00,
2013-02-16 01:05:00,45.5,32.8,29.56,ENE,68,1.1,1.1,61,0.00,,---,0.00,VWS V14.01,2013-02-15 23:05:00,
2013-02-16 01:06:00,45.5,32.8,29.56,NE,45,1.6,1.6,61,0.00,,---,0.00,VWS V14.01,2013-02-15 23:06:00,
2013-02-16 01:07:00,45.5,32.8,29.56,NE,45,1.3,1.6,61,0.00,,---,0.00,VWS V14.01,2013-02-15 23:07:00,
2013-02-16 01:08:00,45.5,32.8,29.56,NE,45,1.6,1.6,61,0.00,,---,0.00,VWS V14.01,2013-02-15 23:08:00,
2013-02-16 01:09:00,45.5,32.8,29.56,NNE,22,2.0,2.0,61,0.00,,---,0.00,VWS V14.01,2013-02-15 23:09:00,
2013-02-16 01:10:00,45.5,32.8,29.56,NNE,22,1.1,2.0,61,0.00,,---,0.00,VWS V14.01,2013-02-15 23:10:00,
2013-02-16 01:11:00,45.5,32.8,29.56,NNE,22,0.0,1.1,61,0.00,,---,0.00,VWS V14.01,2013-02-15 23:11:00,
2013-02-16 01:12:00,45.5,32.8,29.56,NNE,22,0.0,0.0,61,0.00,,---,0.00,VWS V14.01,2013-02-15 23:12:00,
2013-02-16 01:13:00,45.5,32.8,29.56,NNE,22,0.0,0.0,61,0.00,,---,0.00,VWS V14.01,2013-02-15 23:13:00,
2013-02-16 01:14:00,45.5,32.8,29.56,NNE,22,0.0,0.0,61,0.00,,---,0.00,VWS V14.01,2013-02-15 23:14:00,
2013-02-16 01:15:00,45.5,32.8,29.56,NNE,22,0.0,0.0,61,0.00,,---,0.00,VWS V14.01,2013-02-15 23:15:00,
2013-02-16 01:16:00,45.5,32.8,29.56,NNE,22,0.0,0.0,61,0.00,,---,0.00,VWS V14.01,2013-02-15 23:16:00,
2013-02-16 01:17:00,45.5,32.8,29.56,NNE,22,0.0,0.0,61,0.00,,---,0.00,VWS V14.01,2013-02-15 23:17:00,
2013-02-16 01:18:00,45.5,32.8,29.56,NNE,22,0.0,0.0,61,0.00,,---,0.00,VWS V14.01,2013-02-15 23:18:00,
2013-02-16 01:19:00,45.5,32.8,29.56,NNE,22,0.0,0.0,61,0.00,,---,0.00,VWS V14.01,2013-02-15 23:19:00,
2013-02-16 01:20:00,45.5,32.8,29.56,NNE,22,0.0,0.0,61,0.00,,---,0.00,VWS V14.01,2013-02-15 23:20:00,
2013-02-16 01:21:00,45.7,33.0,29.56,NNE,22,0.0,0.0,61,0.00,,---,0.00,VWS V14.01,2013-02-15 23:21:00,
2013-02-16 01:22:00,45.7,33.4,29.56,NNE,22,0.0,0.0,62,0.00,,---,0.00,VWS V14.01,2013-02-15 23:22:00,
2013-02-16 01:23:00,45.7,33.4,29.56,NNE,22,0.0,0.0,62,0.00,,---,0.00,VWS V14.01,2013-02-15 23:23:00,
2013-02-16 01:24:00,45.7,33.4,29.56,NNE,22,0.0,0.0,62,0.00,,---,0.00,VWS V14.01,2013-02-15 23:24:00,
2013-02-16 01:25:00,45.9,33.6,29.56,NNE,22,0.0,0.0,62,0.00,,---,0.00,VWS V14.01,2013-02-15 23:25:00,
2013-02-16 01:26:00,45.9,33.6,29.56,NNE,22,0.9,0.9,62,0.00,,---,0.00,VWS V14.01,2013-02-15 23:26:00,
2013-02-16 01:27:00,45.9,33.6,29.56,NNE,22,0.0,0.9,62,0.00,,---,0.00,VWS V14.01,2013-02-15 23:27:00,
2013-02-16 01:28:00,45.9,33.6,29.56,NNE,22,0.0,0.0,62,0.00,,---,0.00,VWS V14.01,2013-02-15 23:28:00,
2013-02-16 01:29:00,45.9,33.6,29.56,NNE,22,1.1,1.1,62,0.00,,---,0.00,VWS V14.01,2013-02-15 23:29:00,
2013-02-16 01:30:00,45.9,33.6,29.56,NNE,22,0.0,1.1,62,0.00,,---,0.00,VWS V14.01,2013-02-15 23:30:00,
2013-02-16 01:31:00,45.9,33.6,29.56,NNE,22,0.0,0.0,62,0.00,,---,0.00,VWS V14.01,2013-02-15 23:31:00,
2013-02-16 01:32:00,46.0,33.8,29.56,NNE,22,0.0,0.0,62,0.00,,---,0.00,VWS V14.01,2013-02-15 23:32:00,
2013-02-16 01:33:00,46.0,33.8,29.56,NNE,22,0.9,0.9,62,0.00,,---,0.00,VWS V14.01,2013-02-15 23:33:00,
2013-02-16 01:34:00,46.0,33.8,29.56,NNE,22,1.1,1.1,62,0.00,,---,0.00,VWS V14.01,2013-02-15 23:34:00,
2013-02-16 01:35:00,46.0,33.8,29.56,NNE,22,0.0,1.1,62,0.00,,---,0.00,VWS V14.01,2013-02-15 23:35:00,
2013-02-16 01:36:00,46.0,33.8,29.56,NNE,22,0.0,0.0,62,0.00,,---,0.00,VWS V14.01,2013-02-15 23:36:00,
2013-02-16 01:37:00,46.0,33.8,29.56,NNE,22,0.9,0.9,62,0.00,,---,0.00,VWS V14.01,2013-02-15 23:37:00,
2013-02-16 01:38:00,46.0,33.8,29.59,NNE,22,0.0,0.9,62,0.00,,---,0.00,VWS V14.01,2013-02-15 23:38:00,
2013-02-16 01:39:00,46.0,33.8,29.59,NNE,22,0.0,0.0,62,0.00,,---,0.00,VWS V14.01,2013-02-15 23:39:00,
2013-02-16 01:40:00,46.2,33.9,29.59,NNE,22,1.1,1.1,62,0.00,,---,0.00,VWS V14.01,2013-02-15 23:40:00,
2013-02-16 01:41:00,46.2,33.9,29.59,NNE,22,1.3,1.3,62,0.00,,---,0.00,VWS V14.01,2013-02-15 23:41:00,
2013-02-16 01:42:00,46.2,33.9,29.59,NNE,22,2.0,2.0,62,0.00,,---,0.00,VWS V14.01,2013-02-15 23:42:00,
2013-02-16 01:44:00,46.4,34.1,29.59,NNE,22,1.6,2.0,62,0.00,,---,0.00,VWS V14.01,2013-02-15 23:44:00,
2013-02-16 01:45:00,46.4,34.1,29.59,NNE,22,2.7,2.7,62,0.00,,---,0.00,VWS V14.01,2013-02-15 23:45:00,
2013-02-16 01:46:00,46.4,34.1,29.59,NNE,22,1.1,2.7,62,0.00,,---,0.00,VWS V14.01,2013-02-15 23:46:00,
2013-02-16 01:47:00,46.4,34.1,29.59,NNE,22,1.6,1.6,62,0.00,,---,0.00,VWS V14.01,2013-02-15 23:47:00,
2013-02-16 01:48:00,46.6,34.7,29.59,NNE,22,2.0,2.0,63,0.00,,---,0.00,VWS V14.01,2013-02-15 23:48:00,
2013-02-16 01:49:00,46.6,34.7,29.59,NNE,22,2.0,2.0,63,0.00,,---,0.00,VWS V14.01,2013-02-15 23:49:00,
2013-02-16 01:50:00,46.8,34.8,29.59,North,0,3.1,3.1,63,0.00,,---,0.00,VWS V14.01,2013-02-15 23:50:00,
2013-02-16 01:51:00,46.8,34.8,29.59,NNE,22,2.9,3.1,63,0.00,,---,0.00,VWS V14.01,2013-02-15 23:51:00,
2013-02-16 01:52:00,46.8,34.8,29.59,NNE,22,2.5,2.9,63,0.00,,---,0.00,VWS V14.01,2013-02-15 23:52:00,
2013-02-16 01:53:00,46.8,34.8,29.59,NNE,22,2.9,2.9,63,0.00,,---,0.00,VWS V14.01,2013-02-15 23:53:00,
2013-02-16 01:54:00,46.9,35.0,29.59,NNE,22,0.0,2.9,63,0.00,,---,0.00,VWS V14.01,2013-02-15 23:54:00,
2013-02-16 01:55:00,46.9,35.0,29.59,NNE,22,1.3,1.3,63,0.00,,---,0.00,VWS V14.01,2013-02-15 23:55:00,
2013-02-16 01:56:00,46.9,35.0,29.59,NNE,22,0.9,1.3,63,0.00,,---,0.00,VWS V14.01,2013-02-15 23:56:00,
2013-02-16 01:57:00,46.9,35.0,29.59,NNE,22,0.0,0.9,63,0.00,,---,0.00,VWS V14.01,2013-02-15 23:57:00,
2013-02-16 01:58:00,46.9,35.0,29.59,NNE,22,0.0,0.0,63,0.00,,---,0.00,VWS V14.01,2013-02-15 23:58:00,
2013-02-16 01:59:00,46.9,35.0,29.59,NNE,22,0.0,0.0,63,0.00,,---,0.00,VWS V14.01,2013-02-15 23:59:00,
2013-02-16 02:00:00,47.1,35.2,29.59,NNE,22,1.1,1.1,63,0.00,,---,0.00,VWS V14.01,2013-02-16 00:00:00,
2013-02-16 02:01:00,47.1,35.2,29.59,NNE,22,0.0,1.1,63,0.00,,---,0.00,VWS V14.01,2013-02-16 00:01:00,
2013-02-16 02:02:00,47.1,35.2,29.59,NNE,22,1.3,1.3,63,0.00,,---,0.00,VWS V14.01,2013-02-16 00:02:00,
2013-02-16 02:04:00,47.1,35.2,29.59,NNE,22,0.0,1.3,63,0.00,,---,0.00,VWS V14.01,2013-02-16 00:04:00,
2013-02-16 02:05:00,47.1,35.2,29.59,NE,45,1.1,1.1,63,0.00,,---,0.00,VWS V14.01,2013-02-16 00:05:00,
2013-02-16 02:06:00,47.1,35.2,29.59,NE,45,0.0,1.1,63,0.00,,---,0.00,VWS V14.01,2013-02-16 00:06:00,
2013-02-16 02:07:00,47.1,35.2,29.59,ENE,68,0.0,0.0,63,0.00,,---,0.00,VWS V14.01,2013-02-16 00:07:00,
2013-02-16 02:08:00,47.1,35.2,29.59,ENE,68,0.0,0.0,63,0.00,,---,0.00,VWS V14.01,2013-02-16 00:08:00,
2013-02-16 02:09:00,47.1,35.2,29.59,ENE,68,0.0,0.0,63,0.00,,---,0.00,VWS V14.01,2013-02-16 00:09:00,
2013-02-16 02:10:00,47.1,35.2,29.59,ENE,68,0.0,0.0,63,0.00,,---,0.00,VWS V14.01,2013-02-16 00:10:00,
2013-02-16 02:11:00,47.1,35.2,29.59,ENE,68,0.0,0.0,63,0.00,,---,0.00,VWS V14.01,2013-02-16 00:11:00,
2013-02-16 02:12:00,47.1,35.2,29.59,ENE,68,0.0,0.0,63,0.00,,---,0.00,VWS V14.01,2013-02-16 00:12:00,
2013-02-16 02:13:00,47.1,35.2,29.59,ENE,68,0.0,0.0,63,0.00,,---,0.00,VWS V14.01,2013-02-16 00:13:00,
2013-02-16 02:14:00,47.1,35.2,29.59,ENE,68,0.0,0.0,63,0.00,,---,0.00,VWS V14.01,2013-02-16 00:14:00,
2013-02-16 02:15:00,47.1,35.2,29.59,ENE,68,0.9,0.9,63,0.00,,---,0.00,VWS V14.01,2013-02-16 00:15:00,
2013-02-16 02:16:00,47.1,35.2,29.59,ENE,68,0.0,0.9,63,0.00,,---,0.00,VWS V14.01,2013-02-16 00:16:00,
2013-02-16 02:17:00,47.1,35.2,29.59,ENE,68,0.0,0.0,63,0.00,,---,0.00,VWS V14.01,2013-02-16 00:17:00,
2013-02-16 02:18:00,47.3,35.4,29.59,ENE,68,0.0,0.0,63,0.00,,---,0.00,VWS V14.01,2013-02-16 00:18:00,
2013-02-16 02:19:00,47.3,35.4,29.59,ENE,68,1.1,1.1,63,0.00,,---,0.00,VWS V14.01,2013-02-16 00:19:00,
2013-02-16 02:20:00,47.3,35.4,29.59,ENE,68,0.0,1.1,63,0.00,,---,0.00,VWS V14.01,2013-02-16 00:20:00,
2013-02-16 02:21:00,47.3,35.4,29.59,ENE,68,0.0,0.0,63,0.00,,---,0.00,VWS V14.01,2013-02-16 00:21:00,
2013-02-16 02:22:00,47.3,35.4,29.59,ENE,68,0.0,0.0,63,0.00,,---,0.00,VWS V14.01,2013-02-16 00:22:00,
2013-02-16 02:23:00,47.3,35.4,29.56,ENE,68,0.0,0.0,63,0.00,,---,0.00,VWS V14.01,2013-02-16 00:23:00,
2013-02-16 02:24:00,47.3,35.4,29.56,ENE,68,0.0,0.0,63,0.00,,---,0.00,VWS V14.01,2013-02-16 00:24:00,
2013-02-16 02:25:00,47.3,35.4,29.56,ENE,68,0.0,0.0,63,0.00,,---,0.00,VWS V14.01,2013-02-16 00:25:00,
2013-02-16 02:26:00,47.3,35.4,29.56,ENE,68,0.0,0.0,63,0.00,,---,0.00,VWS V14.01,2013-02-16 00:26:00,
2013-02-16 02:27:00,47.3,35.4,29.56,ENE,68,0.0,0.0,63,0.00,,---,0.00,VWS V14.01,2013-02-16 00:27:00,
2013-02-16 02:28:00,47.3,35.4,29.56,ENE,68,0.0,0.0,63,0.00,,---,0.00,VWS V14.01,2013-02-16 00:28:00,
2013-02-16 02:29:00,47.3,35.4,29.56,ENE,68,0.0,0.0,63,0.00,,---,0.00,VWS V14.01,2013-02-16 00:29:00,
2013-02-16 02:31:00,47.3,35.0,29.56,ENE,68,0.0,1.1,62,0.00,,---,0.00,VWS V14.01,2013-02-16 00:31:00,
2013-02-16 02:32:00,47.3,35.0,29.56,ENE,68,0.0,0.0,62,0.00,,---,0.00,VWS V14.01,2013-02-16 00:32:00,
2013-02-16 02:33:00,47.3,35.0,29.56,ENE,68,0.0,0.0,62,0.00,,---,0.00,VWS V14.01,2013-02-16 00:33:00,
2013-02-16 02:34:00,47.3,35.0,29.56,ENE,68,0.9,0.9,62,0.00,,---,0.00,VWS V14.01,2013-02-16 00:34:00,
2013-02-16 02:35:00,47.3,35.0,29.56,NE,45,1.1,1.1,62,0.00,,---,0.00,VWS V14.01,2013-02-16 00:35:00,
2013-02-16 02:36:00,47.3,35.0,29.56,NE,45,1.3,1.3,62,0.00,,---,0.00,VWS V14.01,2013-02-16 00:36:00,
2013-02-16 02:37:00,47.3,35.0,29.56,NNE,22,1.6,1.6,62,0.00,,---,0.00,VWS V14.01,2013-02-16 00:37:00,
2013-02-16 02:38:00,47.3,35.0,29.56,NNE,22,0.0,1.6,62,0.00,,---,0.00,VWS V14.01,2013-02-16 00:38:00,
2013-02-16 02:39:00,47.3,35.0,29.56,NNE,22,0.0,0.0,62,0.00,,---,0.00,VWS V14.01,2013-02-16 00:39:00,
2013-02-16 02:40:00,47.3,35.0,29.56,NNE,22,0.0,0.0,62,0.00,,---,0.00,VWS V14.01,2013-02-16 00:40:00,
2013-02-16 02:41:00,47.3,35.0,29.56,NNE,22,0.0,0.0,62,0.00,,---,0.00,VWS V14.01,2013-02-16 00:41:00,
2013-02-16 02:42:00,47.3,35.0,29.56,NNE,22,0.0,0.0,62,0.00,,---,0.00,VWS V14.01,2013-02-16 00:42:00,
2013-02-16 02:43:00,47.3,35.0,29.56,NNE,22,1.3,1.3,62,0.00,,---,0.00,VWS V14.01,2013-02-16 00:43:00,
2013-02-16 02:44:00,47.3,35.0,29.56,NNE,22,1.1,1.3,62,0.00,,---,0.00,VWS V14.01,2013-02-16 00:44:00,
2013-02-16 02:45:00,47.3,35.0,29.56,NNE,22,1.3,1.3,62,0.00,,---,0.00,VWS V14.01,2013-02-16 00:45:00,
2013-02-16 02:46:00,47.3,35.0,29.56,NNE,22,0.0,1.3,62,0.00,,---,0.00,VWS V14.01,2013-02-16 00:46:00,
2013-02-16 02:47:00,47.3,35.0,29.56,NNE,22,0.0,0.0,62,0.00,,---,0.00,VWS V14.01,2013-02-16 00:47:00,
2013-02-16 02:49:00,47.3,34.5,29.56,NNE,22,0.0,0.0,61,0.00,,---,0.00,VWS V14.01,2013-02-16 00:49:00,
2013-02-16 02:50:00,47.3,34.5,29.56,NNE,22,0.0,0.0,61,0.00,,---,0.00,VWS V14.01,2013-02-16 00:50:00,
2013-02-16 02:51:00,47.3,34.5,29.56,NNE,22,0.0,0.0,61,0.00,,---,0.00,VWS V14.01,2013-02-16 00:51:00,
2013-02-16 02:52:00,47.3,34.5,29.56,NNE,22,0.0,0.0,61,0.00,,---,0.00,VWS V14.01,2013-02-16 00:52:00,
2013-02-16 02:53:00,47.3,34.5,29.56,NNE,22,0.0,0.0,61,0.00,,---,0.00,VWS V14.01,2013-02-16 00:53:00,
2013-02-16 02:54:00,47.3,34.5,29.56,NNE,22,0.0,0.0,61,0.00,,---,0.00,VWS V14.01,2013-02-16 00:54:00,
2013-02-16 02:55:00,47.3,34.5,29.56,NNE,22,0.0,0.0,61,0.00,,---,0.00,VWS V14.01,2013-02-16 00:55:00,
2013-02-16 02:56:00,47.5,35.1,29.56,NNE,22,1.1,1.1,62,0.00,,---,0.00,VWS V14.01,2013-02-16 00:56:00,
2013-02-16 02:57:00,47.5,35.1,29.56,NNE,22,0.9,1.1,62,0.00,,---,0.00,VWS V14.01,2013-02-16 00:57:00,
2013-02-16 02:58:00,47.5,35.1,29.56,NNE,22,0.9,0.9,62,0.00,,---,0.00,VWS V14.01,2013-02-16 00:58:00,
2013-02-16 02:59:00,47.5,35.1,29.56,NNE,22,1.6,1.6,62,0.00,,---,0.00,VWS V14.01,2013-02-16 00:59:00,
2013-02-16 03:00:00,47.5,35.1,29.56,NNE,22,1.6,1.6,62,0.00,,---,0.00,VWS V14.01,2013-02-16 01:00:00,
2013-02-16 03:01:00,47.5,35.1,29.56,NNE,22,0.0,1.6,62,0.00,,---,0.00,VWS V14.01,2013-02-16 01:01:00,
2013-02-16 03:02:00,47.7,35.3,29.56,NNE,22,0.0,0.0,62,0.00,,---,0.00,VWS V14.01,2013-02-16 01:02:00,
2013-02-16 03:04:00,47.7,35.3,29.56,NNE,22,0.0,0.0,62,0.00,,---,0.00,VWS V14.01,2013-02-16 01:04:00,
2013-02-16 03:05:00,47.7,34.9,29.56,NNE,22,0.0,0.0,61,0.00,,---,0.00,VWS V14.01,2013-02-16 01:05:00,
2013-02-16 03:06:00,47.7,34.9,29.56,NNE,22,0.0,0.0,61,0.00,,---,0.00,VWS V14.01,2013-02-16 01:06:00,
2013-02-16 03:07:00,47.7,34.9,29.56,NNE,22,0.0,0.0,61,0.00,,---,0.00,VWS V14.01,2013-02-16 01:07:00,
2013-02-16 03:08:00,47.7,34.9,29.56,NNE,22,0.0,0.0,61,0.00,,---,0.00,VWS V14.01,2013-02-16 01:08:00,
2013-02-16 03:09:00,47.7,34.9,29.56,NNE,22,0.0,0.0,61,0.00,,---,0.00,VWS V14.01,2013-02-16 01:09:00,
2013-02-16 03:10:00,47.7,34.9,29.56,NNE,22,0.0,0.0,61,0.00,,---,0.00,VWS V14.01,2013-02-16 01:10:00,
2013-02-16 03:11:00,47.7,34.9,29.56,NNE,22,0.0,0.0,61,0.00,,---,0.00,VWS V14.01,2013-02-16 01:11:00,
2013-02-16 03:12:00,47.7,34.9,29.56,NNE,22,0.0,0.0,61,0.00,,---,0.00,VWS V14.01,2013-02-16 01:12:00,
2013-02-16 03:13:00,47.7,34.9,29.56,NNE,22,0.0,0.0,61,0.00,,---,0.00,VWS V14.01,2013-02-16 01:13:00,
2013-02-16 03:14:00,47.7,34.9,29.56,NNE,22,0.0,0.0,61,0.00,,---,0.00,VWS V14.01,2013-02-16 01:14:00,
2013-02-16 03:15:00,47.7,34.9,29.56,NNE,22,0.9,0.9,61,0.00,,---,0.00,VWS V14.01,2013-02-16 01:15:00,
2013-02-16 03:16:00,47.5,34.7,29.56,NNE,22,0.0,0.9,61,0.00,,---,0.00,VWS V14.01,2013-02-16 01:16:00,
2013-02-16 03:17:00,47.5,34.7,29.56,NNE,22,0.9,0.9,61,0.00,,---,0.00,VWS V14.01,2013-02-16 01:17:00,
2013-02-16 03:18:00,47.7,34.9,29.56,NNE,22,0.0,0.9,61,0.00,,---,0.00,VWS V14.01,2013-02-16 01:18:00,
2013-02-16 03:19:00,47.5,34.7,29.56,NNE,22,0.0,0.0,61,0.00,,---,0.00,VWS V14.01,2013-02-16 01:19:00,
2013-02-16 03:20:00,47.5,34.7,29.56,NNE,22,0.0,0.0,61,0.00,,---,0.00,VWS V14.01,2013-02-16 01:20:00,
2013-02-16 03:21:00,47.5,34.7,29.56,NNE,22,0.0,0.0,61,0.00,,---,0.00,VWS V14.01,2013-02-16 01:21:00,
2013-02-16 03:22:00,47.5,34.7,29.56,NNE,22,0.0,0.0,61,0.00,,---,0.00,VWS V14.01,2013-02-16 01:22:00,
2013-02-16 03:23:00,47.5,34.7,29.56,NNE,22,0.0,0.0,61,0.00,,---,0.00,VWS V14.01,2013-02-16 01:23:00,
2013-02-16 03:24:00,47.5,34.7,29.56,NNE,22,0.0,0.0,61,0.00,,---,0.00,VWS V14.01,2013-02-16 01:24:00,
2013-02-16 03:25:00,47.5,34.7,29.56,NNE,22,0.0,0.0,61,0.00,,---,0.00,VWS V14.01,2013-02-16 01:25:00,
2013-02-16 03:26:00,47.5,34.7,29.56,NNE,22,0.0,0.0,61,0.00,,---,0.00,VWS V14.01,2013-02-16 01:26:00,
2013-02-16 03:27:00,47.5,34.7,29.56,NNE,22,0.0,0.0,61,0.00,,---,0.00,VWS V14.01,2013-02-16 01:27:00,
2013-02-16 03:28:00,47.5,34.7,29.56,NNE,22,0.0,0.0,61,0.00,,---,0.00,VWS V14.01,2013-02-16 01:28:00,
2013-02-16 03:29:00,47.5,34.7,29.56,NNE,22,0.0,0.0,61,0.00,,---,0.00,VWS V14.01,2013-02-16 01:29:00,
2013-02-16 03:30:00,47.5,34.7,29.56,NNE,22,0.0,0.0,61,0.00,,---,0.00,VWS V14.01,2013-02-16 01:30:00,
2013-02-16 03:31:00,47.5,34.7,29.56,NNE,22,0.0,0.0,61,0.00,,---,0.00,VWS V14.01,2013-02-16 01:31:00,
2013-02-16 03:32:00,47.5,34.7,29.56,NNE,22,0.0,0.0,61,0.00,,---,0.00,VWS V14.01,2013-02-16 01:32:00,
2013-02-16 03:33:00,47.5,34.7,29.56,NNE,22,0.0,0.0,61,0.00,,---,0.00,VWS V14.01,2013-02-16 01:33:00,
2013-02-16 03:34:00,47.5,34.7,29.56,NNE,22,0.0,0.0,61,0.00,,---,0.00,VWS V14.01,2013-02-16 01:34:00,
2013-02-16 03:35:00,47.5,34.7,29.56,NNE,22,0.0,0.0,61,0.00,,---,0.00,VWS V14.01,2013-02-16 01:35:00,
2013-02-16 03:36:00,47.7,35.3,29.56,NNE,22,0.0,0.0,62,0.00,,---,0.00,VWS V14.01,2013-02-16 01:36:00,
2013-02-16 03:37:00,47.7,35.3,29.56,NNE,22,0.0,0.0,62,0.00,,---,0.00,VWS V14.01,2013-02-16 01:37:00,
2013-02-16 03:38:00,47.7,35.3,29.56,NNE,22,0.9,0.9,62,0.00,,---,0.00,VWS V14.01,2013-02-16 01:38:00,
2013-02-16 03:39:00,47.7,35.3,29.56,NNE,22,0.0,0.9,62,0.00,,---,0.00,VWS V14.01,2013-02-16 01:39:00,
2013-02-16 03:40:00,47.7,35.3,29.56,NNE,22,0.0,0.0,62,0.00,,---,0.00,VWS V14.01,2013-02-16 01:40:00,
2013-02-16 03:41:00,47.7,35.3,29.56,NNE,22,0.0,0.0,62,0.00,,---,0.00,VWS V14.01,2013-02-16 01:41:00,
2013-02-16 03:42:00,47.7,35.3,29.56,NNE,22,0.0,0.0,62,0.00,,---,0.00,VWS V14.01,2013-02-16 01:42:00,
2013-02-16 03:43:00,47.7,35.3,29.56,NNE,22,0.0,0.0,62,0.00,,---,0.00,VWS V14.01,2013-02-16 01:43:00,
2013-02-16 03:44:00,47.7,35.3,29.56,NNE,22,0.0,0.0,62,0.00,,---,0.00,VWS V14.01,2013-02-16 01:44:00,
2013-02-16 03:45:00,47.7,35.3,29.56,NNE,22,0.0,0.0,62,0.00,,---,0.00,VWS V14.01,2013-02-16 01:45:00,
2013-02-16 03:46:00,47.7,35.3,29.56,NNE,22,0.0,0.0,62,0.00,,---,0.00,VWS V14.01,2013-02-16 01:46:00,
2013-02-16 03:47:00,47.7,35.3,29.56,NNE,22,0.9,0.9,62,0.00,,---,0.00,VWS V14.01,2013-02-16 01:47:00,
2013-02-16 03:48:00,47.7,35.3,29.56,NNE,22,2.0,2.0,62,0.00,,---,0.00,VWS V14.01,2013-02-16 01:48:00,
2013-02-16 03:49:00,47.8,35.5,29.56,NNE,22,0.0,2.0,62,0.00,,---,0.00,VWS V14.01,2013-02-16 01:49:00,
2013-02-16 03:50:00,47.8,35.5,29.56,NNE,22,0.0,0.0,62,0.00,,---,0.00,VWS V14.01,2013-02-16 01:50:00,
2013-02-16 03:51:00,47.8,35.5,29.56,NNE,22,0.0,0.0,62,0.00,,---,0.00,VWS V14.01,2013-02-16 01:51:00,
2013-02-16 03:53:00,47.8,35.5,29.56,NNE,22,0.0,0.0,62,0.00,,---,0.00,VWS V14.01,2013-02-16 01:53:00,
2013-02-16 03:54:00,47.8,35.5,29.56,NE,45,0.0,0.0,62,0.00,,---,0.00,VWS V14.01,2013-02-16 01:54:00,
2013-02-16 03:55:00,47.8,35.5,29.56,NE,45,0.0,0.0,62,0.00,,---,0.00,VWS V14.01,2013-02-16 01:55:00,
2013-02-16 03:56:00,47.8,35.5,29.56,NE,45,0.0,0.0,62,0.00,,---,0.00,VWS V14.01,2013-02-16 01:56:00,
2013-02-16 03:57:00,47.8,35.5,29.56,NE,45,0.0,0.0,62,0.00,,---,0.00,VWS V14.01,2013-02-16 01:57:00,
2013-02-16 03:58:00,47.8,35.5,29.56,NE,45,0.0,0.0,62,0.00,,---,0.00,VWS V14.01,2013-02-16 01:58:00,
2013-02-16 03:59:00,47.8,35.5,29.56,NE,45,0.0,0.0,62,0.00,,---,0.00,VWS V14.01,2013-02-16 01:59:00,
2013-02-16 04:00:00,47.8,35.5,29.56,ENE,68,0.9,0.9,62,0.00,,---,0.00,VWS V14.01,2013-02-16 02:00:00,
2013-02-16 04:01:00,47.8,35.5,29.56,ENE,68,0.0,0.9,62,0.00,,---,0.00,VWS V14.01,2013-02-16 02:01:00,
2013-02-16 04:02:00,47.8,35.5,29.56,ENE,68,0.0,0.0,62,0.00,,---,0.00,VWS V14.01,2013-02-16 02:02:00,
2013-02-16 04:03:00,47.8,35.5,29.56,ENE,68,0.0,0.0,62,0.00,,---,0.00,VWS V14.01,2013-02-16 02:03:00,
2013-02-16 04:04:00,47.8,35.5,29.56,ENE,68,0.0,0.0,62,0.00,,---,0.00,VWS V14.01,2013-02-16 02:04:00,
2013-02-16 04:05:00,47.8,35.5,29.56,ENE,68,0.0,0.0,62,0.00,,---,0.00,VWS V14.01,2013-02-16 02:05:00,
2013-02-16 04:06:00,48.0,35.6,29.56,ENE,68,0.0,0.0,62,0.00,,---,0.00,VWS V14.01,2013-02-16 02:06:00,
2013-02-16 04:07:00,48.0,35.6,29.56,ENE,68,0.0,0.0,62,0.00,,---,0.00,VWS V14.01,2013-02-16 02:07:00,
2013-02-16 04:08:00,48.0,35.6,29.56,ENE,68,0.0,0.0,62,0.00,,---,0.00,VWS V14.01,2013-02-16 02:08:00,
2013-02-16 04:09:00,48.0,35.6,29.56,ENE,68,0.0,0.0,62,0.00,,---,0.00,VWS V14.01,2013-02-16 02:09:00,
2013-02-16 04:10:00,48.0,35.6,29.56,ENE,68,0.0,0.0,62,0.00,,---,0.00,VWS V14.01,2013-02-16 02:10:00,
2013-02-16 04:11:00,48.0,35.6,29.56,ENE,68,0.0,0.0,62,0.00,,---,0.00,VWS V14.01,2013-02-16 02:11:00,
2013-02-16 04:12:00,48.0,35.6,29.56,ENE,68,0.0,0.0,62,0.00,,---,0.00,VWS V14.01,2013-02-16 02:12:00,
2013-02-16 04:13:00,48.0,35.6,29.56,ENE,68,0.0,0.0,62,0.00,,---,0.00,VWS V14.01,2013-02-16 02:13:00,
2013-02-16 04:14:00,48.0,35.6,29.56,ENE,68,0.0,0.0,62,0.00,,---,0.00,VWS V14.01,2013-02-16 02:14:00,
2013-02-16 04:15:00,48.0,35.6,29.56,ENE,68,0.0,0.0,62,0.00,,---,0.00,VWS V14.01,2013-02-16 02:15:00,
2013-02-16 04:16:00,48.0,35.6,29.56,ENE,68,0.0,0.0,62,0.00,,---,0.00,VWS V14.01,2013-02-16 02:16:00,
2013-02-16 04:17:00,48.0,35.6,29.56,ENE,68,0.0,0.0,62,0.00,,---,0.00,VWS V14.01,2013-02-16 02:17:00,
2013-02-16 04:18:00,48.0,35.6,29.56,ENE,68,0.0,0.0,62,0.00,,---,0.00,VWS V14.01,2013-02-16 02:18:00,
2013-02-16 04:19:00,48.0,35.6,29.56,ENE,68,0.0,0.0,62,0.00,,---,0.00,VWS V14.01,2013-02-16 02:19:00,
2013-02-16 04:20:00,48.0,35.6,29.56,NE,45,0.0,0.0,62,0.00,,---,0.00,VWS V14.01,2013-02-16 02:20:00,
2013-02-16 04:21:00,48.0,35.6,29.56,NE,45,0.0,0.0,62,0.00,,---,0.00,VWS V14.01,2013-02-16 02:21:00,
2013-02-16 04:22:00,48.0,35.6,29.56,NE,45,0.0,0.0,62,0.00,,---,0.00,VWS V14.01,2013-02-16 02:22:00,
2013-02-16 04:23:00,48.2,35.8,29.56,NE,45,0.0,0.0,62,0.00,,---,0.00,VWS V14.01,2013-02-16 02:23:00,
2013-02-16 04:24:00,48.2,35.8,29.56,NNE,22,1.3,1.3,62,0.00,,---,0.00,VWS V14.01,2013-02-16 02:24:00,
2013-02-16 04:25:00,48.2,35.8,29.56,NNE,22,1.3,1.3,62,0.00,,---,0.00,VWS V14.01,2013-02-16 02:25:00,
2013-02-16 04:26:00,48.2,35.8,29.56,NNE,22,1.3,1.3,62,0.00,,---,0.00,VWS V14.01,2013-02-16 02:26:00,
2013-02-16 04:27:00,48.2,35.8,29.56,NNE,22,0.0,1.3,62,0.00,,---,0.00,VWS V14.01,2013-02-16 02:27:00,
2013-02-16 04:28:00,48.2,35.8,29.56,NNE,22,1.1,1.1,62,0.00,,---,0.00,VWS V14.01,2013-02-16 02:28:00,
2013-02-16 04:29:00,48.2,35.4,29.56,NNE,22,0.0,1.1,61,0.00,,---,0.00,VWS V14.01,2013-02-16 02:29:00,
2013-02-16 04:30:00,48.2,35.4,29.56,NNE,22,0.0,0.0,61,0.00,,---,0.00,VWS V14.01,2013-02-16 02:30:00,
2013-02-16 04:31:00,48.2,35.4,29.56,NNE,22,0.0,0.0,61,0.00,,---,0.00,VWS V14.01,2013-02-16 02:31:00,
2013-02-16 04:32:00,48.2,35.4,29.56,NNE,22,0.0,0.0,61,0.00,,---,0.00,VWS V14.01,2013-02-16 02:32:00,
2013-02-16 04:33:00,48.2,35.4,29.56,NNE,22,0.0,0.0,61,0.00,,---,0.00,VWS V14.01,2013-02-16 02:33:00,
2013-02-16 04:34:00,48.2,35.4,29.56,NNE,22,1.3,1.3,61,0.00,,---,0.00,VWS V14.01,2013-02-16 02:34:00,
2013-02-16 04:35:00,48.2,35.4,29.56,NNE,22,0.9,1.3,61,0.00,,---,0.00,VWS V14.01,2013-02-16 02:35:00,
2013-02-16 04:36:00,48.2,35.8,29.56,NNE,22,0.9,0.9,62,0.00,,---,0.00,VWS V14.01,2013-02-16 02:36:00,
2013-02-16 04:37:00,48.2,35.8,29.56,NNE,22,1.3,1.3,62,0.00,,---,0.00,VWS V14.01,2013-02-16 02:37:00,
2013-02-16 04:38:00,48.2,35.8,29.56,NNE,22,1.3,1.3,62,0.00,,---,0.00,VWS V14.01,2013-02-16 02:38:00,
2013-02-16 04:39:00,48.2,35.8,29.56,NNE,22,0.0,1.3,62,0.00,,---,0.00,VWS V14.01,2013-02-16 02:39:00,
2013-02-16 04:40:00,48.2,35.8,29.56,NNE,22,1.6,1.6,62,0.00,,---,0.00,VWS V14.01,2013-02-16 02:40:00,
2013-02-16 04:41:00,48.2,35.8,29.56,NNE,22,1.3,1.6,62,0.00,,---,0.00,VWS V14.01,2013-02-16 02:41:00,
2013-02-16 04:42:00,48.4,36.0,29.56,NNE,22,1.6,1.6,62,0.00,,---,0.00,VWS V14.01,2013-02-16 02:42:00,
2013-02-16 04:43:00,48.4,36.0,29.56,NNE,22,2.0,2.0,62,0.00,,---,0.00,VWS V14.01,2013-02-16 02:43:00,
2013-02-16 04:44:00,48.2,35.8,29.56,NNE,22,0.9,2.0,62,0.00,,---,0.00,VWS V14.01,2013-02-16 02:44:00,
2013-02-16 04:45:00,48.4,36.0,29.56,NNE,22,0.0,0.9,62,0.00,,---,0.00,VWS V14.01,2013-02-16 02:45:00,
2013-02-16 04:46:00,48.4,36.0,29.56,NNE,22,2.2,2.2,62,0.00,,---,0.00,VWS V14.01,2013-02-16 02:46:00,
2013-02-16 04:47:00,48.2,35.8,29.56,NNE,22,1.3,2.2,62,0.00,,---,0.00,VWS V14.01,2013-02-16 02:47:00,
2013-02-16 04:49:00,48.2,35.8,29.56,NNE,22,0.0,1.3,62,0.00,,---,0.00,VWS V14.01,2013-02-16 02:49:00,
2013-02-16 04:50:00,48.2,35.8,29.56,NNE,22,0.0,0.0,62,0.00,,---,0.00,VWS V14.01,2013-02-16 02:50:00,
2013-02-16 04:51:00,48.2,35.8,29.56,NNE,22,0.0,0.0,62,0.00,,---,0.00,VWS V14.01,2013-02-16 02:51:00,
2013-02-16 04:52:00,48.2,35.8,29.56,NNE,22,0.0,0.0,62,0.00,,---,0.00,VWS V14.01,2013-02-16 02:52:00,
2013-02-16 04:53:00,48.2,35.8,29.56,NNE,22,0.0,0.0,62,0.00,,---,0.00,VWS V14.01,2013-02-16 02:53:00,
2013-02-16 04:54:00,48.2,35.8,29.56,NNE,22,0.0,0.0,62,0.00,,---,0.00,VWS V14.01,2013-02-16 02:54:00,
2013-02-16 04:55:00,48.2,35.8,29.56,NNE,22,0.0,0.0,62,0.00,,---,0.00,VWS V14.01,2013-02-16 02:55:00,
2013-02-16 04:56:00,48.2,35.8,29.56,NNE,22,2.2,2.2,62,0.00,,---,0.00,VWS V14.01,2013-02-16 02:56:00,
2013-02-16 04:57:00,48.2,35.8,29.56,NNE,22,1.1,2.2,62,0.00,,---,0.00,VWS V14.01,2013-02-16 02:57:00,
2013-02-16 04:58:00,48.2,35.8,29.56,NNE,22,1.6,1.6,62,0.00,,---,0.00,VWS V14.01,2013-02-16 02:58:00,
2013-02-16 04:59:00,48.2,35.8,29.56,NNE,22,1.3,1.6,62,0.00,,---,0.00,VWS V14.01,2013-02-16 02:59:00,
2013-02-16 05:00:00,48.2,35.8,29.56,NNE,22,0.9,1.3,62,0.00,,---,0.00,VWS V14.01,2013-02-16 03:00:00,
2013-02-16 05:01:00,48.2,35.8,29.56,NNE,22,0.0,0.9,62,0.00,,---,0.00,VWS V14.01,2013-02-16 03:01:00,
2013-02-16 05:02:00,48.2,35.8,29.56,NNE,22,0.9,0.9,62,0.00,,---,0.00,VWS V14.01,2013-02-16 03:02:00,
2013-02-16 05:03:00,48.2,35.8,29.56,NNE,22,0.9,0.9,62,0.00,,---,0.00,VWS V14.01,2013-02-16 03:03:00,
2013-02-16 05:04:00,48.2,35.8,29.56,NNE,22,1.3,1.3,62,0.00,,---,0.00,VWS V14.01,2013-02-16 03:04:00,
2013-02-16 05:05:00,48.2,35.8,29.56,NNE,22,1.1,1.3,62,0.00,,---,0.00,VWS V14.01,2013-02-16 03:05:00,
2013-02-16 05:06:00,48.2,35.8,29.56,NNE,22,0.0,1.1,62,0.00,,---,0.00,VWS V14.01,2013-02-16 03:06:00,
2013-02-16 05:07:00,48.2,35.8,29.56,NNE,22,0.9,0.9,62,0.00,,---,0.00,VWS V14.01,2013-02-16 03:07:00,
2013-02-16 05:08:00,48.0,35.6,29.56,NNE,22,0.0,0.9,62,0.00,,---,0.00,VWS V14.01,2013-02-16 03:08:00,
2013-02-16 05:09:00,48.0,35.6,29.56,NNE,22,0.0,0.0,62,0.00,,---,0.00,VWS V14.01,2013-02-16 03:09:00,
2013-02-16 05:10:00,48.0,35.6,29.56,NNE,22,0.0,0.0,62,0.00,,---,0.00,VWS V14.01,2013-02-16 03:10:00,
2013-02-16 05:11:00,48.0,35.6,29.56,NNE,22,0.9,0.9,62,0.00,,---,0.00,VWS V14.01,2013-02-16 03:11:00,
2013-02-16 05:12:00,48.0,35.6,29.56,NNE,22,0.9,0.9,62,0.00,,---,0.00,VWS V14.01,2013-02-16 03:12:00,
2013-02-16 05:13:00,48.0,35.6,29.56,NNE,22,0.0,0.9,62,0.00,,---,0.00,VWS V14.01,2013-02-16 03:13:00,
2013-02-16 05:14:00,48.0,35.6,29.56,NNE,22,0.0,0.0,62,0.00,,---,0.00,VWS V14.01,2013-02-16 03:14:00,
2013-02-16 05:15:00,48.0,35.6,29.56,NNE,22,2.0,2.0,62,0.00,,---,0.00,VWS V14.01,2013-02-16 03:15:00,
2013-02-16 05:16:00,47.8,35.5,29.56,NNE,22,0.0,2.0,62,0.00,,---,0.00,VWS V14.01,2013-02-16 03:16:00,
2013-02-16 05:17:00,47.8,35.5,29.56,NNE,22,1.1,1.1,62,0.00,,---,0.00,VWS V14.01,2013-02-16 03:17:00,
2013-02-16 05:18:00,47.8,35.5,29.56,NNE,22,0.0,1.1,62,0.00,,---,0.00,VWS V14.01,2013-02-16 03:18:00,
2013-02-16 05:19:00,47.8,35.5,29.56,NNE,22,1.6,1.6,62,0.00,,---,0.00,VWS V14.01,2013-02-16 03:19:00,
2013-02-16 05:20:00,47.7,35.3,29.56,NNE,22,2.0,2.0,62,0.00,,---,0.00,VWS V14.01,2013-02-16 03:20:00,
2013-02-16 05:21:00,47.7,35.3,29.56,NNE,22,1.6,2.0,62,0.00,,---,0.00,VWS V14.01,2013-02-16 03:21:00,
2013-02-16 05:22:00,47.7,35.3,29.56,NNE,22,0.9,1.6,62,0.00,,---,0.00,VWS V14.01,2013-02-16 03:22:00,
2013-02-16 05:23:00,47.7,35.3,29.56,NNE,22,0.0,0.9,62,0.00,,---,0.00,VWS V14.01,2013-02-16 03:23:00,
2013-02-16 05:24:00,47.7,35.3,29.56,NNE,22,0.0,0.0,62,0.00,,---,0.00,VWS V14.01,2013-02-16 03:24:00,
2013-02-16 05:25:00,47.7,35.3,29.56,NNE,22,1.1,1.1,62,0.00,,---,0.00,VWS V14.01,2013-02-16 03:25:00,
2013-02-16 05:26:00,47.7,35.3,29.56,NNE,22,1.3,1.3,62,0.00,,---,0.00,VWS V14.01,2013-02-16 03:26:00,
2013-02-16 05:27:00,47.7,35.3,29.56,NNE,22,2.0,2.0,62,0.00,,---,0.00,VWS V14.01,2013-02-16 03:27:00,
2013-02-16 05:28:00,47.7,35.7,29.56,NNE,22,1.3,2.0,63,0.00,,---,0.00,VWS V14.01,2013-02-16 03:28:00,
2013-02-16 05:29:00,47.7,35.7,29.56,NNE,22,1.6,1.6,63,0.00,,---,0.00,VWS V14.01,2013-02-16 03:29:00,
2013-02-16 05:30:00,47.7,35.7,29.56,NNE,22,1.3,1.6,63,0.00,,---,0.00,VWS V14.01,2013-02-16 03:30:00,
2013-02-16 05:31:00,47.7,35.7,29.56,NNE,22,1.1,1.3,63,0.00,,---,0.00,VWS V14.01,2013-02-16 03:31:00,
2013-02-16 05:32:00,47.7,35.7,29.56,NNE,22,1.3,1.3,63,0.00,,---,0.00,VWS V14.01,2013-02-16 03:32:00,
2013-02-16 05:33:00,47.7,35.7,29.56,NNE,22,0.0,1.3,63,0.00,,---,0.00,VWS V14.01,2013-02-16 03:33:00,
2013-02-16 05:34:00,47.7,35.7,29.56,NNE,22,0.0,0.0,63,0.00,,---,0.00,VWS V14.01,2013-02-16 03:34:00,
2013-02-16 05:35:00,47.7,35.7,29.56,NNE,22,0.0,0.0,63,0.00,,---,0.00,VWS V14.01,2013-02-16 03:35:00,
2013-02-16 05:36:00,47.5,35.5,29.56,NNE,22,0.0,0.0,63,0.00,,---,0.00,VWS V14.01,2013-02-16 03:36:00,
2013-02-16 05:37:00,47.5,35.5,29.56,NNE,22,0.0,0.0,63,0.00,,---,0.00,VWS V14.01,2013-02-16 03:37:00,
2013-02-16 05:38:00,47.5,35.5,29.56,NNE,22,0.0,0.0,63,0.00,,---,0.00,VWS V14.01,2013-02-16 03:38:00,
2013-02-16 05:39:00,47.5,35.5,29.56,NNE,22,0.0,0.0,63,0.00,,---,0.00,VWS V14.01,2013-02-16 03:39:00,
2013-02-16 05:40:00,47.5,35.5,29.56,NNE,22,0.0,0.0,63,0.00,,---,0.00,VWS V14.01,2013-02-16 03:40:00,
2013-02-16 05:43:00,47.3,35.4,29.56,NNE,22,0.0,0.0,63,0.00,,---,0.00,VWS V14.01,2013-02-16 03:43:00,
2013-02-16 05:44:00,47.3,35.4,29.56,NNE,22,0.0,0.0,63,0.00,,---,0.00,VWS V14.01,2013-02-16 03:44:00,
2013-02-16 05:45:00,47.3,35.4,29.56,NNE,22,0.0,0.0,63,0.00,,---,0.00,VWS V14.01,2013-02-16 03:45:00,
2013-02-16 05:46:00,47.3,35.4,29.56,NNE,22,0.0,0.0,63,0.00,,---,0.00,VWS V14.01,2013-02-16 03:46:00,
2013-02-16 05:48:00,47.3,35.4,29.56,NNE,22,0.0,0.0,63,0.00,,---,0.00,VWS V14.01,2013-02-16 03:48:00,
2013-02-16 05:49:00,47.3,35.4,29.56,NNE,22,0.0,0.0,63,0.00,,---,0.00,VWS V14.01,2013-02-16 03:49:00,
2013-02-16 05:51:00,47.3,35.4,29.56,NNE,22,0.0,0.0,63,0.00,,---,0.00,VWS V14.01,2013-02-16 03:51:00,
2013-02-16 05:52:00,47.3,35.4,29.56,NNE,22,0.0,0.0,63,0.00,,---,0.00,VWS V14.01,2013-02-16 03:52:00,
2013-02-16 05:53:00,47.3,35.4,29.56,NNE,22,0.0,0.0,63,0.00,,---,0.00,VWS V14.01,2013-02-16 03:53:00,
2013-02-16 05:54:00,47.3,35.4,29.56,NNE,22,0.0,0.0,63,0.00,,---,0.00,VWS V14.01,2013-02-16 03:54:00,
2013-02-16 05:55:00,47.3,35.8,29.56,NNE,22,0.0,0.0,64,0.00,,---,0.00,VWS V14.01,2013-02-16 03:55:00,
2013-02-16 05:56:00,47.3,35.8,29.56,NNE,22,0.0,0.0,64,0.00,,---,0.00,VWS V14.01,2013-02-16 03:56:00,
2013-02-16 05:57:00,47.3,35.8,29.56,NNE,22,0.0,0.0,64,0.00,,---,0.00,VWS V14.01,2013-02-16 03:57:00,
2013-02-16 05:58:00,47.3,35.8,29.56,NNE,22,0.0,0.0,64,0.00,,---,0.00,VWS V14.01,2013-02-16 03:58:00,
2013-02-16 05:59:00,47.3,35.8,29.56,NNE,22,0.0,0.0,64,0.00,,---,0.00,VWS V14.01,2013-02-16 03:59:00,
2013-02-16 06:00:00,47.3,35.8,29.56,NNE,22,0.0,0.0,64,0.00,,---,0.00,VWS V14.01,2013-02-16 04:00:00,
2013-02-16 06:01:00,47.3,35.8,29.56,NNE,22,0.0,0.0,64,0.00,,---,0.00,VWS V14.01,2013-02-16 04:01:00,
2013-02-16 06:02:00,47.3,35.8,29.56,NNE,22,0.0,0.0,64,0.00,,---,0.00,VWS V14.01,2013-02-16 04:02:00,
2013-02-16 06:03:00,47.3,35.8,29.56,NNE,22,0.0,0.0,64,0.00,,---,0.00,VWS V14.01,2013-02-16 04:03:00,
2013-02-16 06:04:00,47.3,35.8,29.56,NNE,22,0.0,0.0,64,0.00,,---,0.00,VWS V14.01,2013-02-16 04:04:00,
2013-02-16 06:05:00,47.3,35.8,29.56,NNE,22,0.0,0.0,64,0.00,,---,0.00,VWS V14.01,2013-02-16 04:05:00,
2013-02-16 06:06:00,47.3,36.2,29.56,NNE,22,0.0,0.0,65,0.00,,---,0.00,VWS V14.01,2013-02-16 04:06:00,
2013-02-16 06:07:00,47.3,36.2,29.56,NNE,22,0.0,0.0,65,0.00,,---,0.00,VWS V14.01,2013-02-16 04:07:00,
2013-02-16 06:08:00,47.5,36.3,29.56,NNE,22,0.0,0.0,65,0.00,,---,0.00,VWS V14.01,2013-02-16 04:08:00,
2013-02-16 06:09:00,47.5,36.3,29.56,NNE,22,0.9,0.9,65,0.00,,---,0.00,VWS V14.01,2013-02-16 04:09:00,
2013-02-16 06:10:00,47.5,36.3,29.56,NNE,22,0.0,0.9,65,0.00,,---,0.00,VWS V14.01,2013-02-16 04:10:00,
2013-02-16 06:11:00,47.5,36.3,29.56,NNE,22,0.0,0.0,65,0.00,,---,0.00,VWS V14.01,2013-02-16 04:11:00,
2013-02-16 06:12:00,47.5,36.3,29.56,NNE,22,0.0,0.0,65,0.00,,---,0.00,VWS V14.01,2013-02-16 04:12:00,
2013-02-16 06:13:00,47.5,36.3,29.56,NNE,22,0.0,0.0,65,0.00,,---,0.00,VWS V14.01,2013-02-16 04:13:00,
2013-02-16 06:14:00,47.5,36.3,29.56,NNE,22,0.0,0.0,65,0.00,,---,0.00,VWS V14.01,2013-02-16 04:14:00,
2013-02-16 06:15:00,47.7,36.5,29.56,NNE,22,0.0,0.0,65,0.00,,---,0.00,VWS V14.01,2013-02-16 04:15:00,
2013-02-16 06:16:00,47.7,36.5,29.56,NNE,22,0.0,0.0,65,0.00,,---,0.00,VWS V14.01,2013-02-16 04:16:00,
2013-02-16 06:17:00,47.7,36.5,29.56,NNE,22,0.0,0.0,65,0.00,,---,0.00,VWS V14.01,2013-02-16 04:17:00,
2013-02-16 06:18:00,47.7,36.5,29.56,NNE,22,0.0,0.0,65,0.00,,---,0.00,VWS V14.01,2013-02-16 04:18:00,
2013-02-16 06:19:00,47.7,36.5,29.56,NNE,22,0.0,0.0,65,0.00,,---,0.00,VWS V14.01,2013-02-16 04:19:00,
2013-02-16 06:20:00,47.7,36.5,29.56,NNE,22,0.0,0.0,65,0.00,,---,0.00,VWS V14.01,2013-02-16 04:20:00,
2013-02-16 06:21:00,47.7,36.5,29.56,NNE,22,0.0,0.0,65,0.00,,---,0.00,VWS V14.01,2013-02-16 04:21:00,
2013-02-16 06:22:00,47.7,36.5,29.56,NNE,22,0.0,0.0,65,0.00,,---,0.00,VWS V14.01,2013-02-16 04:22:00,
2013-02-16 06:23:00,47.7,36.5,29.56,NNE,22,0.0,0.0,65,0.00,,---,0.00,VWS V14.01,2013-02-16 04:23:00,
2013-02-16 06:24:00,47.7,36.5,29.56,NNE,22,0.0,0.0,65,0.00,,---,0.00,VWS V14.01,2013-02-16 04:24:00,
2013-02-16 06:25:00,47.7,36.5,29.56,NNE,22,0.0,0.0,65,0.00,,---,0.00,VWS V14.01,2013-02-16 04:25:00,
2013-02-16 06:26:00,47.7,36.5,29.56,NNE,22,0.0,0.0,65,0.00,,---,0.00,VWS V14.01,2013-02-16 04:26:00,
2013-02-16 06:27:00,47.7,36.5,29.56,NNE,22,1.6,1.6,65,0.00,,---,0.00,VWS V14.01,2013-02-16 04:27:00,
2013-02-16 06:28:00,47.8,36.7,29.56,NNE,22,0.0,1.6,65,0.00,,---,0.00,VWS V14.01,2013-02-16 04:28:00,
2013-02-16 06:29:00,47.8,36.7,29.56,NNE,22,0.0,0.0,65,0.00,,---,0.00,VWS V14.01,2013-02-16 04:29:00,
2013-02-16 06:30:00,47.8,36.7,29.56,NNE,22,0.0,0.0,65,0.00,,---,0.00,VWS V14.01,2013-02-16 04:30:00,
2013-02-16 06:31:00,47.8,36.7,29.56,NNE,22,0.0,0.0,65,0.00,,---,0.00,VWS V14.01,2013-02-16 04:31:00,
2013-02-16 06:32:00,47.8,36.7,29.56,NNE,22,0.0,0.0,65,0.00,,---,0.00,VWS V14.01,2013-02-16 04:32:00,
2013-02-16 06:33:00,47.8,36.7,29.56,NNE,22,0.0,0.0,65,0.00,,---,0.00,VWS V14.01,2013-02-16 04:33:00,
2013-02-16 06:34:00,47.8,36.7,29.56,NNE,22,0.0,0.0,65,0.00,,---,0.00,VWS V14.01,2013-02-16 04:34:00,
2013-02-16 06:35:00,47.8,36.7,29.56,NNE,22,0.0,0.0,65,0.00,,---,0.00,VWS V14.01,2013-02-16 04:35:00,
2013-02-16 06:36:00,47.8,36.7,29.56,NNE,22,0.0,0.0,65,0.00,,---,0.00,VWS V14.01,2013-02-16 04:36:00,
2013-02-16 06:37:00,47.8,36.7,29.56,NNE,22,0.0,0.0,65,0.00,,---,0.00,VWS V14.01,2013-02-16 04:37:00,
2013-02-16 06:38:00,47.8,36.7,29.56,NNE,22,0.0,0.0,65,0.00,,---,0.00,VWS V14.01,2013-02-16 04:38:00,
2013-02-16 06:39:00,47.8,36.7,29.56,NNE,22,0.0,0.0,65,0.00,,---,0.00,VWS V14.01,2013-02-16 04:39:00,
2013-02-16 06:40:00,47.8,36.7,29.56,NNE,22,2.0,2.0,65,0.00,,---,0.00,VWS V14.01,2013-02-16 04:40:00,
2013-02-16 06:41:00,47.8,36.7,29.56,NNE,22,1.1,2.0,65,0.00,,---,0.00,VWS V14.01,2013-02-16 04:41:00,
2013-02-16 06:42:00,47.8,36.7,29.56,NNE,22,0.0,1.1,65,0.00,,---,0.00,VWS V14.01,2013-02-16 04:42:00,
2013-02-16 06:43:00,47.8,36.7,29.56,NNE,22,0.0,0.0,65,0.00,,---,0.00,VWS V14.01,2013-02-16 04:43:00,
2013-02-16 06:44:00,47.8,36.7,29.56,NNE,22,0.0,0.0,65,0.00,,---,0.00,VWS V14.01,2013-02-16 04:44:00,
2013-02-16 06:45:00,48.0,36.8,29.56,NE,45,0.0,0.0,65,0.00,,---,0.00,VWS V14.01,2013-02-16 04:45:00,
2013-02-16 06:46:00,48.0,36.8,29.56,NE,45,0.0,0.0,65,0.00,,---,0.00,VWS V14.01,2013-02-16 04:46:00,
2013-02-16 06:47:00,48.0,36.8,29.56,NE,45,0.0,0.0,65,0.00,,---,0.00,VWS V14.01,2013-02-16 04:47:00,
2013-02-16 06:48:00,48.0,36.8,29.56,NE,45,0.0,0.0,65,0.00,,---,0.00,VWS V14.01,2013-02-16 04:48:00,
2013-02-16 06:49:00,48.0,36.8,29.56,NE,45,0.0,0.0,65,0.00,,---,0.00,VWS V14.01,2013-02-16 04:49:00,
2013-02-16 06:50:00,48.0,36.8,29.56,NE,45,0.0,0.0,65,0.00,,---,0.00,VWS V14.01,2013-02-16 04:50:00,
2013-02-16 06:51:00,48.0,36.8,29.56,ENE,68,1.1,1.1,65,0.00,,---,0.00,VWS V14.01,2013-02-16 04:51:00,
2013-02-16 06:52:00,48.0,36.8,29.56,ENE,68,1.1,1.1,65,0.00,,---,0.00,VWS V14.01,2013-02-16 04:52:00,
2013-02-16 06:53:00,48.0,36.8,29.56,ENE,68,0.0,1.1,65,0.00,,---,0.00,VWS V14.01,2013-02-16 04:53:00,
2013-02-16 06:54:00,48.0,36.8,29.56,ENE,68,0.0,0.0,65,0.00,,---,0.00,VWS V14.01,2013-02-16 04:54:00,
2013-02-16 06:55:00,48.0,36.8,29.56,ENE,68,0.9,0.9,65,0.00,,---,0.00,VWS V14.01,2013-02-16 04:55:00,
2013-02-16 06:56:00,48.0,36.8,29.56,ENE,68,1.1,1.1,65,0.00,,---,0.00,VWS V14.01,2013-02-16 04:56:00,
2013-02-16 06:57:00,48.0,36.8,29.56,ENE,68,0.0,1.1,65,0.00,,---,0.00,VWS V14.01,2013-02-16 04:57:00,
2013-02-16 06:58:00,48.0,36.8,29.56,ENE,68,0.0,0.0,65,0.00,,---,0.00,VWS V14.01,2013-02-16 04:58:00,
2013-02-16 06:59:00,48.0,36.8,29.56,ENE,68,0.0,0.0,65,0.00,,---,0.00,VWS V14.01,2013-02-16 04:59:00,
2013-02-16 07:00:00,48.0,36.8,29.56,ENE,68,0.0,0.0,65,0.00,,---,0.00,VWS V14.01,2013-02-16 05:00:00,
2013-02-16 07:01:00,48.0,36.8,29.56,ENE,68,0.0,0.0,65,0.00,,---,0.00,VWS V14.01,2013-02-16 05:01:00,
2013-02-16 07:02:00,48.0,36.8,29.56,ENE,68,0.0,0.0,65,0.00,,---,0.00,VWS V14.01,2013-02-16 05:02:00,
2013-02-16 07:04:00,48.0,36.8,29.56,ENE,68,0.0,0.0,65,0.00,,---,0.00,VWS V14.01,2013-02-16 05:04:00,
2013-02-16 07:05:00,48.0,37.2,29.56,ENE,68,0.0,0.0,66,0.00,,---,0.00,VWS V14.01,2013-02-16 05:05:00,
2013-02-16 07:06:00,48.0,36.8,29.56,ENE,68,0.0,0.0,65,0.00,,---,0.00,VWS V14.01,2013-02-16 05:06:00,
2013-02-16 07:07:00,48.0,36.8,29.56,NE,45,0.0,0.0,65,0.00,,---,0.00,VWS V14.01,2013-02-16 05:07:00,
2013-02-16 07:08:00,48.0,36.8,29.56,NE,45,0.0,0.0,65,0.00,,---,0.00,VWS V14.01,2013-02-16 05:08:00,
2013-02-16 07:09:00,48.0,36.8,29.56,NE,45,0.0,0.0,65,0.00,,---,0.00,VWS V14.01,2013-02-16 05:09:00,
2013-02-16 07:10:00,48.0,36.8,29.56,NE,45,0.0,0.0,65,0.00,,---,0.00,VWS V14.01,2013-02-16 05:10:00,
2013-02-16 07:11:00,48.0,36.8,29.56,NE,45,0.0,0.0,65,0.00,,---,0.00,VWS V14.01,2013-02-16 05:11:00,
2013-02-16 07:12:00,48.0,36.8,29.56,NNE,22,0.0,0.0,65,0.00,,---,0.00,VWS V14.01,2013-02-16 05:12:00,
2013-02-16 07:13:00,48.0,36.8,29.56,NNE,22,1.6,1.6,65,0.00,,---,0.00,VWS V14.01,2013-02-16 05:13:00,
2013-02-16 07:14:00,48.0,36.8,29.56,NNE,22,0.0,1.6,65,0.00,,---,0.00,VWS V14.01,2013-02-16 05:14:00,
2013-02-16 07:15:00,47.8,36.7,29.56,NNE,22,0.0,0.0,65,0.00,,---,0.00,VWS V14.01,2013-02-16 05:15:00,
2013-02-16 07:16:00,47.8,36.7,29.56,NNE,22,0.0,0.0,65,0.00,,---,0.00,VWS V14.01,2013-02-16 05:16:00,
2013-02-16 07:17:00,47.8,36.7,29.56,NNE,22,0.0,0.0,65,0.00,,---,0.00,VWS V14.01,2013-02-16 05:17:00,
2013-02-16 07:18:00,47.8,36.7,29.56,NNE,22,0.0,0.0,65,0.00,,---,0.00,VWS V14.01,2013-02-16 05:18:00,
2013-02-16 07:19:00,47.8,36.7,29.56,NNE,22,0.0,0.0,65,0.00,,---,0.00,VWS V14.01,2013-02-16 05:19:00,
2013-02-16 07:20:00,47.8,36.7,29.56,NNE,22,0.0,0.0,65,0.00,,---,0.00,VWS V14.01,2013-02-16 05:20:00,
2013-02-16 07:21:00,47.8,36.7,29.56,NNE,22,0.0,0.0,65,0.00,,---,0.00,VWS V14.01,2013-02-16 05:21:00,
2013-02-16 07:22:00,47.8,36.7,29.56,NNE,22,0.0,0.0,65,0.00,,---,0.00,VWS V14.01,2013-02-16 05:22:00,
2013-02-16 07:23:00,48.0,36.8,29.59,NNE,22,0.0,0.0,65,0.00,,---,0.00,VWS V14.01,2013-02-16 05:23:00,
2013-02-16 07:24:00,48.0,36.8,29.59,NNE,22,0.0,0.0,65,0.00,,---,0.00,VWS V14.01,2013-02-16 05:24:00,
2013-02-16 07:25:00,48.0,36.8,29.59,NNE,22,1.1,1.1,65,0.00,,---,0.00,VWS V14.01,2013-02-16 05:25:00,
2013-02-16 07:26:00,48.0,36.8,29.59,NNE,22,0.0,1.1,65,0.00,,---,0.00,VWS V14.01,2013-02-16 05:26:00,
2013-02-16 07:27:00,48.0,36.8,29.59,NNE,22,0.0,0.0,65,0.00,,---,0.00,VWS V14.01,2013-02-16 05:27:00,
2013-02-16 07:28:00,48.0,36.8,29.59,NNE,22,0.0,0.0,65,0.00,,---,0.00,VWS V14.01,2013-02-16 05:28:00,
2013-02-16 07:29:00,48.0,37.2,29.59,NNE,22,0.0,0.0,66,0.00,,---,0.00,VWS V14.01,2013-02-16 05:29:00,
2013-02-16 07:30:00,48.0,37.2,29.59,NNE,22,0.0,0.0,66,0.00,,---,0.00,VWS V14.01,2013-02-16 05:30:00,
2013-02-16 07:31:00,48.0,37.2,29.59,NNE,22,0.0,0.0,66,0.00,,---,0.00,VWS V14.01,2013-02-16 05:31:00,
2013-02-16 07:32:00,48.0,37.2,29.59,NNE,22,0.0,0.0,66,0.00,,---,0.00,VWS V14.01,2013-02-16 05:32:00,
2013-02-16 07:33:00,48.0,37.2,29.59,NNE,22,2.2,2.2,66,0.00,,---,0.00,VWS V14.01,2013-02-16 05:33:00,
2013-02-16 07:34:00,48.2,37.0,29.59,NNE,22,0.0,2.2,65,0.00,,---,0.00,VWS V14.01,2013-02-16 05:34:00,
2013-02-16 07:35:00,48.2,37.0,29.59,NNE,22,0.0,0.0,65,0.00,,---,0.00,VWS V14.01,2013-02-16 05:35:00,
2013-02-16 07:36:00,48.2,37.0,29.59,NNE,22,0.0,0.0,65,0.00,,---,0.00,VWS V14.01,2013-02-16 05:36:00,
2013-02-16 07:37:00,48.2,37.0,29.59,NNE,22,1.6,1.6,65,0.00,,---,0.00,VWS V14.01,2013-02-16 05:37:00,
2013-02-16 07:38:00,48.2,37.0,29.59,NNE,22,1.3,1.6,65,0.00,,---,0.00,VWS V14.01,2013-02-16 05:38:00,
2013-02-16 07:39:00,48.4,37.2,29.59,NNE,22,0.0,1.3,65,0.00,,---,0.00,VWS V14.01,2013-02-16 05:39:00,
2013-02-16 07:40:00,48.4,37.2,29.59,NNE,22,0.0,0.0,65,0.00,,---,0.00,VWS V14.01,2013-02-16 05:40:00,
2013-02-16 07:41:00,48.4,37.2,29.59,NNE,22,1.6,1.6,65,0.00,,---,0.00,VWS V14.01,2013-02-16 05:41:00,
2013-02-16 07:42:00,48.4,37.2,29.59,NNE,22,0.0,1.6,65,0.00,,---,0.00,VWS V14.01,2013-02-16 05:42:00,
2013-02-16 07:43:00,48.4,37.2,29.59,NNE,22,0.0,0.0,65,0.00,,---,0.00,VWS V14.01,2013-02-16 05:43:00,
2013-02-16 07:44:00,48.4,37.2,29.59,NNE,22,0.0,0.0,65,0.00,,---,0.00,VWS V14.01,2013-02-16 05:44:00,
2013-02-16 07:45:00,48.4,37.2,29.59,NNE,22,0.0,0.0,65,0.00,,---,0.00,VWS V14.01,2013-02-16 05:45:00,
2013-02-16 07:46:00,48.4,37.2,29.59,NNE,22,0.0,0.0,65,0.00,,---,0.00,VWS V14.01,2013-02-16 05:46:00,
2013-02-16 07:47:00,48.4,37.2,29.59,NE,45,0.0,0.0,65,0.00,,---,0.00,VWS V14.01,2013-02-16 05:47:00,
2013-02-16 07:48:00,48.4,37.2,29.59,NE,45,2.0,2.0,65,0.00,,---,0.00,VWS V14.01,2013-02-16 05:48:00,
2013-02-16 07:49:00,48.4,37.2,29.59,ENE,68,0.9,2.0,65,0.00,,---,0.00,VWS V14.01,2013-02-16 05:49:00,
2013-02-16 07:50:00,48.6,37.3,29.59,ENE,68,0.0,0.9,65,0.00,,---,0.00,VWS V14.01,2013-02-16 05:50:00,
2013-02-16 07:51:00,48.6,37.3,29.59,ENE,68,2.0,2.0,65,0.00,,---,0.00,VWS V14.01,2013-02-16 05:51:00,
2013-02-16 07:52:00,48.6,37.3,29.59,ENE,68,1.3,2.0,65,0.00,,---,0.00,VWS V14.01,2013-02-16 05:52:00,
2013-02-16 07:53:00,48.6,37.3,29.59,ENE,68,2.0,2.0,65,0.00,,---,0.00,VWS V14.01,2013-02-16 05:53:00,
2013-02-16 07:54:00,48.6,37.3,29.59,ENE,68,1.1,2.0,65,0.00,,---,0.00,VWS V14.01,2013-02-16 05:54:00,
2013-02-16 07:55:00,48.6,37.3,29.59,ENE,68,0.9,1.1,65,0.00,,---,0.00,VWS V14.01,2013-02-16 05:55:00,
2013-02-16 07:56:00,48.6,37.3,29.59,ENE,68,0.0,0.9,65,0.00,,---,0.00,VWS V14.01,2013-02-16 05:56:00,
2013-02-16 07:57:00,48.6,37.3,29.59,ENE,68,0.0,0.0,65,0.00,,---,0.00,VWS V14.01,2013-02-16 05:57:00,
2013-02-16 07:58:00,48.7,37.5,29.59,ENE,68,1.3,1.3,65,0.00,,---,0.00,VWS V14.01,2013-02-16 05:58:00,
2013-02-16 07:59:00,48.7,37.5,29.59,NE,45,1.3,1.3,65,0.00,,---,0.00,VWS V14.01,2013-02-16 05:59:00,
2013-02-16 08:00:00,48.7,37.5,29.59,NE,45,1.3,1.3,65,0.00,,---,0.00,VWS V14.01,2013-02-16 06:00:00,
2013-02-16 08:01:00,48.7,37.5,29.59,NE,45,0.0,1.3,65,0.00,,---,0.00,VWS V14.01,2013-02-16 06:01:00,
2013-02-16 08:02:00,48.7,37.5,29.59,NE,45,1.6,1.6,65,0.00,,---,0.00,VWS V14.01,2013-02-16 06:02:00,
2013-02-16 08:04:00,48.9,37.7,29.59,NNE,22,1.3,1.6,65,0.00,,---,0.00,VWS V14.01,2013-02-16 06:04:00,
2013-02-16 08:05:00,48.9,37.7,29.59,NNE,22,2.0,2.0,65,0.00,,---,0.00,VWS V14.01,2013-02-16 06:05:00,
2013-02-16 08:06:00,48.9,37.7,29.59,NNE,22,0.9,2.0,65,0.00,,---,0.00,VWS V14.01,2013-02-16 06:06:00,
2013-02-16 08:07:00,49.1,38.2,29.59,NNE,22,0.0,0.9,66,0.00,,---,0.00,VWS V14.01,2013-02-16 06:07:00,
2013-02-16 08:08:00,49.1,38.2,29.59,NNE,22,0.0,0.0,66,0.00,,---,0.00,VWS V14.01,2013-02-16 06:08:00,
2013-02-16 08:09:00,49.1,38.2,29.59,NE,45,1.3,1.3,66,0.00,,---,0.00,VWS V14.01,2013-02-16 06:09:00,
2013-02-16 08:10:00,49.1,37.9,29.59,ENE,68,2.9,2.9,65,0.00,,---,0.00,VWS V14.01,2013-02-16 06:10:00,
2013-02-16 08:11:00,49.3,38.0,29.59,East,90,1.6,2.9,65,0.00,,---,0.00,VWS V14.01,2013-02-16 06:11:00,
2013-02-16 08:12:00,49.3,38.0,29.59,East,90,1.6,1.6,65,0.00,,---,0.00,VWS V14.01,2013-02-16 06:12:00,
2013-02-16 08:13:00,49.3,38.0,29.59,East,90,0.9,1.6,65,0.00,,---,0.00,VWS V14.01,2013-02-16 06:13:00,
2013-02-16 08:14:00,49.3,38.0,29.59,East,90,1.6,1.6,65,0.00,,---,0.00,VWS V14.01,2013-02-16 06:14:00,
2013-02-16 08:15:00,49.5,38.2,29.59,East,90,1.1,1.6,65,0.00,,---,0.00,VWS V14.01,2013-02-16 06:15:00,
2013-02-16 08:16:00,49.5,38.2,29.59,East,90,2.0,2.0,65,0.00,,---,0.00,VWS V14.01,2013-02-16 06:16:00,
2013-02-16 08:17:00,49.5,38.2,29.59,East,90,0.0,2.0,65,0.00,,---,0.00,VWS V14.01,2013-02-16 06:17:00,
2013-02-16 08:18:00,49.6,38.4,29.59,East,90,0.0,0.0,65,0.00,,---,0.00,VWS V14.01,2013-02-16 06:18:00,
2013-02-16 08:19:00,49.6,38.4,29.59,East,90,0.0,0.0,65,0.00,,---,0.00,VWS V14.01,2013-02-16 06:19:00,
2013-02-16 08:20:00,49.6,38.4,29.59,East,90,0.0,0.0,65,0.00,,---,0.00,VWS V14.01,2013-02-16 06:20:00,
2013-02-16 08:21:00,49.6,38.4,29.59,ESE,112,2.2,2.2,65,0.00,,---,0.00,VWS V14.01,2013-02-16 06:21:00,
2013-02-16 08:22:00,49.8,38.5,29.59,ESE,112,0.0,2.2,65,0.00,,---,0.00,VWS V14.01,2013-02-16 06:22:00,
2013-02-16 08:23:00,49.8,38.5,29.59,ESE,112,0.0,0.0,65,0.00,,---,0.00,VWS V14.01,2013-02-16 06:23:00,
2013-02-16 08:24:00,50.0,38.3,29.59,East,90,1.6,1.6,64,0.00,,---,0.00,VWS V14.01,2013-02-16 06:24:00,
2013-02-16 08:26:00,50.0,38.3,29.59,ENE,68,0.0,1.6,64,0.00,,---,0.00,VWS V14.01,2013-02-16 06:26:00,
2013-02-16 08:27:00,50.0,38.3,29.59,ENE,68,0.0,0.0,64,0.00,,---,0.00,VWS V14.01,2013-02-16 06:27:00,
2013-02-16 08:28:00,50.2,38.5,29.59,ENE,68,1.3,1.3,64,0.00,,---,0.00,VWS V14.01,2013-02-16 06:28:00,
2013-02-16 08:29:00,50.2,38.5,29.59,NE,45,2.0,2.0,64,0.00,,---,0.00,VWS V14.01,2013-02-16 06:29:00,
2013-02-16 08:30:00,50.5,38.8,29.59,NNE,22,0.0,2.0,64,0.00,,---,0.00,VWS V14.01,2013-02-16 06:30:00,
2013-02-16 08:31:00,50.5,38.8,29.59,NNE,22,0.0,0.0,64,0.00,,---,0.00,VWS V14.01,2013-02-16 06:31:00,
2013-02-16 08:32:00,50.7,39.0,29.59,NNE,22,0.0,0.0,64,0.00,,---,0.00,VWS V14.01,2013-02-16 06:32:00,
2013-02-16 08:33:00,50.7,39.0,29.59,NNE,22,0.0,0.0,64,0.00,,---,0.00,VWS V14.01,2013-02-16 06:33:00,
2013-02-16 08:34:00,50.7,39.0,29.59,NNE,22,0.9,0.9,64,0.00,,---,0.00,VWS V14.01,2013-02-16 06:34:00,
2013-02-16 08:35:00,50.7,38.6,29.59,NE,45,1.6,1.6,63,0.00,,---,0.00,VWS V14.01,2013-02-16 06:35:00,
2013-02-16 08:36:00,50.9,38.8,29.59,ENE,68,0.9,1.6,63,0.00,,---,0.00,VWS V14.01,2013-02-16 06:36:00,
2013-02-16 08:37:00,50.9,38.8,29.59,ENE,68,1.3,1.3,63,0.00,,---,0.00,VWS V14.01,2013-02-16 06:37:00,
2013-02-16 08:38:00,51.1,38.9,29.59,ENE,68,0.0,1.3,63,0.00,,---,0.00,VWS V14.01,2013-02-16 06:38:00,
2013-02-16 08:39:00,51.1,38.9,29.59,ENE,68,2.2,2.2,63,0.00,,---,0.00,VWS V14.01,2013-02-16 06:39:00,
2013-02-16 08:40:00,51.3,38.7,29.59,East,90,1.6,2.2,62,0.00,,---,0.00,VWS V14.01,2013-02-16 06:40:00,
2013-02-16 08:42:00,51.4,38.9,29.59,East,90,0.0,1.6,62,0.00,,---,0.00,VWS V14.01,2013-02-16 06:42:00,
2013-02-16 08:43:00,51.4,38.9,29.59,East,90,1.1,1.1,62,0.00,,---,0.00,VWS V14.01,2013-02-16 06:43:00,
2013-02-16 08:45:00,51.6,39.0,29.59,East,90,0.0,1.1,62,0.00,,---,0.00,VWS V14.01,2013-02-16 06:45:00,
2013-02-16 08:46:00,51.8,39.2,29.59,East,90,0.0,0.0,62,0.00,,---,0.00,VWS V14.01,2013-02-16 06:46:00,
2013-02-16 08:47:00,51.6,39.0,29.59,East,90,0.9,0.9,62,0.00,,---,0.00,VWS V14.01,2013-02-16 06:47:00,
2013-02-16 08:48:00,51.8,38.8,29.59,ENE,68,0.0,0.9,61,0.00,,---,0.00,VWS V14.01,2013-02-16 06:48:00,
2013-02-16 08:49:00,51.6,38.6,29.59,ENE,68,1.3,1.3,61,0.00,,---,0.00,VWS V14.01,2013-02-16 06:49:00,
2013-02-16 08:50:00,51.6,38.6,29.59,NE,45,1.1,1.3,61,0.00,,---,0.00,VWS V14.01,2013-02-16 06:50:00,
2013-02-16 08:51:00,51.6,38.6,29.59,NE,45,0.0,1.1,61,0.00,,---,0.00,VWS V14.01,2013-02-16 06:51:00,
2013-02-16 08:52:00,51.6,38.6,29.59,NE,45,0.0,0.0,61,0.00,,---,0.00,VWS V14.01,2013-02-16 06:52:00,
2013-02-16 08:53:00,52.0,38.5,29.59,NE,45,0.0,0.0,60,0.00,,---,0.00,VWS V14.01,2013-02-16 06:53:00,
2013-02-16 08:54:00,52.2,38.7,29.59,ENE,68,0.0,0.0,60,0.00,,---,0.00,VWS V14.01,2013-02-16 06:54:00,
2013-02-16 08:55:00,52.2,38.7,29.59,ENE,68,0.0,0.0,60,0.00,,---,0.00,VWS V14.01,2013-02-16 06:55:00,
2013-02-16 08:56:00,52.3,38.9,29.59,ENE,68,0.0,0.0,60,0.00,,---,0.00,VWS V14.01,2013-02-16 06:56:00,
2013-02-16 08:57:00,52.3,38.5,29.59,East,90,0.0,0.0,59,0.00,,---,0.00,VWS V14.01,2013-02-16 06:57:00,
2013-02-16 08:58:00,52.5,38.6,29.59,East,90,0.0,0.0,59,0.00,,---,0.00,VWS V14.01,2013-02-16 06:58:00,
2013-02-16 08:59:00,52.5,38.6,29.59,East,90,0.0,0.0,59,0.00,,---,0.00,VWS V14.01,2013-02-16 06:59:00,
2013-02-16 09:00:00,52.5,38.6,29.59,East,90,0.0,0.0,59,0.00,,---,0.00,VWS V14.01,2013-02-16 07:00:00,
2013-02-16 09:01:00,52.5,38.6,29.59,East,90,0.0,0.0,59,0.00,,---,0.00,VWS V14.01,2013-02-16 07:01:00,
2013-02-16 09:02:00,52.5,38.2,29.59,East,90,1.3,1.3,58,0.00,,---,0.00,VWS V14.01,2013-02-16 07:02:00,
2013-02-16 09:04:00,52.3,38.0,29.59,East,90,0.0,1.3,58,0.00,,---,0.00,VWS V14.01,2013-02-16 07:04:00,
2013-02-16 09:05:00,52.3,38.0,29.59,East,90,0.0,0.0,58,0.00,,---,0.00,VWS V14.01,2013-02-16 07:05:00,
2013-02-16 09:06:00,52.2,37.4,29.59,East,90,0.0,0.0,57,0.00,,---,0.00,VWS V14.01,2013-02-16 07:06:00,
2013-02-16 09:07:00,52.2,37.4,29.59,ENE,68,2.0,2.0,57,0.00,,---,0.00,VWS V14.01,2013-02-16 07:07:00,
2013-02-16 09:08:00,52.2,37.0,29.59,ENE,68,0.0,2.0,56,0.00,,---,0.00,VWS V14.01,2013-02-16 07:08:00,
2013-02-16 09:10:00,52.2,37.4,29.59,ENE,68,1.1,1.1,57,0.00,,---,0.00,VWS V14.01,2013-02-16 07:10:00,
2013-02-16 09:11:00,52.2,37.0,29.59,ENE,68,0.0,1.1,56,0.00,,---,0.00,VWS V14.01,2013-02-16 07:11:00,
2013-02-16 09:12:00,52.2,37.0,29.59,ENE,68,2.0,2.0,56,0.00,,---,0.00,VWS V14.01,2013-02-16 07:12:00,
2013-02-16 09:13:00,52.2,37.0,29.59,ENE,68,0.9,2.0,56,0.00,,---,0.00,VWS V14.01,2013-02-16 07:13:00,
2013-02-16 09:14:00,52.2,37.0,29.59,East,90,2.9,2.9,56,0.00,,---,0.00,VWS V14.01,2013-02-16 07:14:00,
2013-02-16 09:15:00,52.2,37.0,29.59,East,90,0.9,2.9,56,0.00,,---,0.00,VWS V14.01,2013-02-16 07:15:00,
2013-02-16 09:16:00,52.3,37.1,29.59,East,90,0.9,0.9,56,0.00,,---,0.00,VWS V14.01,2013-02-16 07:16:00,
2013-02-16 09:17:00,52.3,37.1,29.59,East,90,0.0,0.9,56,0.00,,---,0.00,VWS V14.01,2013-02-16 07:17:00,
2013-02-16 09:18:00,52.3,37.1,29.59,East,90,0.9,0.9,56,0.00,,---,0.00,VWS V14.01,2013-02-16 07:18:00,
2013-02-16 09:19:00,52.5,37.3,29.59,East,90,0.0,0.9,56,0.00,,---,0.00,VWS V14.01,2013-02-16 07:19:00,
2013-02-16 09:20:00,52.5,37.3,29.59,ENE,68,1.6,1.6,56,0.00,,---,0.00,VWS V14.01,2013-02-16 07:20:00,
2013-02-16 09:21:00,52.5,36.8,29.59,NE,45,1.6,1.6,55,0.00,,---,0.00,VWS V14.01,2013-02-16 07:21:00,
2013-02-16 09:22:00,52.5,37.3,29.59,NE,45,1.6,1.6,56,0.00,,---,0.00,VWS V14.01,2013-02-16 07:22:00,
2013-02-16 09:23:00,52.9,37.6,29.59,NE,45,0.0,1.6,56,0.00,,---,0.00,VWS V14.01,2013-02-16 07:23:00,
2013-02-16 09:24:00,53.1,37.8,29.59,NE,45,0.0,0.0,56,0.00,,---,0.00,VWS V14.01,2013-02-16 07:24:00,
2013-02-16 09:25:00,53.1,37.8,29.59,NE,45,1.1,1.1,56,0.00,,---,0.00,VWS V14.01,2013-02-16 07:25:00,
2013-02-16 09:26:00,53.2,37.5,29.59,NE,45,0.0,1.1,55,0.00,,---,0.00,VWS V14.01,2013-02-16 07:26:00,
2013-02-16 09:27:00,53.4,38.1,29.59,NE,45,2.0,2.0,56,0.00,,---,0.00,VWS V14.01,2013-02-16 07:27:00,
2013-02-16 09:28:00,53.6,37.8,29.59,NNE,22,2.2,2.2,55,0.00,,---,0.00,VWS V14.01,2013-02-16 07:28:00,
2013-02-16 09:29:00,53.6,37.8,29.59,NNE,22,2.2,2.2,55,0.00,,---,0.00,VWS V14.01,2013-02-16 07:29:00,
2013-02-16 09:30:00,53.4,37.7,29.59,NNE,22,2.0,2.2,55,0.00,,---,0.00,VWS V14.01,2013-02-16 07:30:00,
2013-02-16 09:31:00,53.8,37.5,29.59,NNE,22,1.1,2.0,54,0.00,,---,0.00,VWS V14.01,2013-02-16 07:31:00,
2013-02-16 09:32:00,53.8,37.5,29.59,NNE,22,1.6,1.6,54,0.00,,---,0.00,VWS V14.01,2013-02-16 07:32:00,
2013-02-16 09:33:00,53.8,37.5,29.59,NNE,22,1.1,1.6,54,0.00,,---,0.00,VWS V14.01,2013-02-16 07:33:00,
2013-02-16 09:35:00,53.8,37.5,29.59,NNE,22,0.0,1.1,54,0.00,,---,0.00,VWS V14.01,2013-02-16 07:35:00,
2013-02-16 09:36:00,54.0,37.2,29.59,NNE,22,1.6,1.6,53,0.00,,---,0.00,VWS V14.01,2013-02-16 07:36:00,
2013-02-16 09:37:00,54.0,37.2,29.59,NNE,22,0.0,1.6,53,0.00,,---,0.00,VWS V14.01,2013-02-16 07:37:00,
2013-02-16 09:38:00,54.0,37.2,29.59,NNE,22,2.0,2.0,53,0.00,,---,0.00,VWS V14.01,2013-02-16 07:38:00,
2013-02-16 09:39:00,54.0,36.8,29.59,NNE,22,1.6,2.0,52,0.00,,---,0.00,VWS V14.01,2013-02-16 07:39:00,
2013-02-16 09:40:00,54.0,36.3,29.59,NNE,22,1.3,1.6,51,0.00,,---,0.00,VWS V14.01,2013-02-16 07:40:00,
2013-02-16 09:41:00,54.0,36.3,29.59,NNE,22,1.3,1.3,51,0.00,,---,0.00,VWS V14.01,2013-02-16 07:41:00,
2013-02-16 09:42:00,54.0,36.3,29.59,ENE,68,2.9,2.9,51,0.00,,---,0.00,VWS V14.01,2013-02-16 07:42:00,
2013-02-16 09:43:00,54.0,35.8,29.59,NE,45,2.0,2.9,50,0.00,,---,0.00,VWS V14.01,2013-02-16 07:43:00,
2013-02-16 09:44:00,54.0,35.8,29.59,NE,45,1.3,2.0,50,0.00,,---,0.00,VWS V14.01,2013-02-16 07:44:00,
2013-02-16 09:45:00,54.0,35.8,29.59,NE,45,1.3,1.3,50,0.00,,---,0.00,VWS V14.01,2013-02-16 07:45:00,
2013-02-16 09:46:00,54.7,36.9,29.59,NE,45,0.0,1.3,51,0.00,,---,0.00,VWS V14.01,2013-02-16 07:46:00,
2013-02-16 09:47:00,55.0,37.3,29.59,NNE,22,1.6,1.6,51,0.00,,---,0.00,VWS V14.01,2013-02-16 07:47:00,
2013-02-16 09:48:00,55.6,37.2,29.59,NNE,22,1.3,1.6,50,0.00,,---,0.00,VWS V14.01,2013-02-16 07:48:00,
2013-02-16 09:49:00,55.9,38.1,29.59,NNE,22,0.9,1.3,51,0.00,,---,0.00,VWS V14.01,2013-02-16 07:49:00,
2013-02-16 09:50:00,56.1,38.3,29.59,NNE,22,0.0,0.9,51,0.00,,---,0.00,VWS V14.01,2013-02-16 07:50:00,
2013-02-16 09:51:00,56.3,37.9,29.59,NNE,22,0.9,0.9,50,0.00,,---,0.00,VWS V14.01,2013-02-16 07:51:00,
2013-02-16 09:53:00,56.3,37.4,29.59,ENE,68,0.0,0.9,49,0.00,,---,0.00,VWS V14.01,2013-02-16 07:53:00,
2013-02-16 09:54:00,56.7,37.7,29.59,ENE,68,0.0,0.0,49,0.00,,---,0.00,VWS V14.01,2013-02-16 07:54:00,
2013-02-16 09:55:00,56.7,37.2,29.59,NNE,22,2.9,2.9,48,0.00,,---,0.00,VWS V14.01,2013-02-16 07:55:00,
2013-02-16 09:56:00,56.7,37.2,29.59,North,0,1.6,2.9,48,0.00,,---,0.00,VWS V14.01,2013-02-16 07:56:00,
2013-02-16 09:57:00,56.8,36.8,29.59,North,0,0.0,1.6,47,0.00,,---,0.00,VWS V14.01,2013-02-16 07:57:00,
2013-02-16 09:58:00,56.8,36.8,29.59,NNE,22,2.5,2.5,47,0.00,,---,0.00,VWS V14.01,2013-02-16 07:58:00,
2013-02-16 09:59:00,57.0,37.0,29.59,NNE,22,2.0,2.5,47,0.00,,---,0.00,VWS V14.01,2013-02-16 07:59:00,
2013-02-16 10:00:00,57.2,37.2,29.59,NNE,22,1.3,2.0,47,0.00,,---,0.00,VWS V14.01,2013-02-16 08:00:00,
2013-02-16 10:01:00,57.4,36.8,29.59,NE,45,0.9,1.3,46,0.00,,---,0.00,VWS V14.01,2013-02-16 08:01:00,
2013-02-16 10:02:00,57.4,36.8,29.59,NE,45,0.9,0.9,46,0.00,,---,0.00,VWS V14.01,2013-02-16 08:02:00,
2013-02-16 10:03:00,57.6,37.0,29.59,East,90,2.2,2.2,46,0.00,,---,0.00,VWS V14.01,2013-02-16 08:03:00,
2013-02-16 10:04:00,57.6,37.0,29.59,East,90,1.1,2.2,46,0.00,,---,0.00,VWS V14.01,2013-02-16 08:04:00,
2013-02-16 10:05:00,57.7,36.6,29.59,East,90,1.3,1.3,45,0.00,,---,0.00,VWS V14.01,2013-02-16 08:05:00,
2013-02-16 10:06:00,57.7,36.6,29.59,East,90,1.3,1.3,45,0.00,,---,0.00,VWS V14.01,2013-02-16 08:06:00,
2013-02-16 10:07:00,57.7,36.0,29.59,ESE,112,0.9,1.3,44,0.00,,---,0.00,VWS V14.01,2013-02-16 08:07:00,
2013-02-16 10:08:00,58.1,36.9,29.59,ESE,112,0.0,0.9,45,0.00,,---,0.00,VWS V14.01,2013-02-16 08:08:00,
2013-02-16 10:09:00,58.3,36.5,29.59,ESE,112,0.0,0.0,44,0.00,,---,0.00,VWS V14.01,2013-02-16 08:09:00,
2013-02-16 10:10:00,58.5,36.7,29.59,ESE,112,0.0,0.0,44,0.00,,---,0.00,VWS V14.01,2013-02-16 08:10:00,
2013-02-16 10:11:00,58.5,37.2,29.59,NNE,22,2.5,2.5,45,0.00,,---,0.00,VWS V14.01,2013-02-16 08:11:00,
2013-02-16 10:12:00,58.3,36.5,29.59,NNE,22,2.5,2.5,44,0.00,,---,0.00,VWS V14.01,2013-02-16 08:12:00,
2013-02-16 10:13:00,57.9,35.0,29.59,North,0,3.4,3.4,42,0.00,,---,0.00,VWS V14.01,2013-02-16 08:13:00,
2013-02-16 10:14:00,57.6,33.4,29.59,North,0,2.0,3.4,40,0.00,,---,0.00,VWS V14.01,2013-02-16 08:14:00,
2013-02-16 10:15:00,57.4,33.3,29.59,North,0,0.0,2.0,40,0.00,,---,0.00,VWS V14.01,2013-02-16 08:15:00,
2013-02-16 10:16:00,57.6,34.1,29.59,North,0,1.1,1.1,41,0.00,,---,0.00,VWS V14.01,2013-02-16 08:16:00,
2013-02-16 10:17:00,57.6,34.1,29.59,North,0,0.0,1.1,41,0.00,,---,0.00,VWS V14.01,2013-02-16 08:17:00,
2013-02-16 10:18:00,57.7,34.8,29.59,North,0,0.0,0.0,42,0.00,,---,0.00,VWS V14.01,2013-02-16 08:18:00,
2013-02-16 10:19:00,57.9,34.4,29.59,SSW,202,2.7,2.7,41,0.00,,---,0.00,VWS V14.01,2013-02-16 08:19:00,
2013-02-16 10:20:00,58.1,34.5,29.59,SSW,202,2.5,2.7,41,0.00,,---,0.00,VWS V14.01,2013-02-16 08:20:00,
2013-02-16 10:21:00,58.3,34.7,29.59,SSW,202,0.9,2.5,41,0.00,,---,0.00,VWS V14.01,2013-02-16 08:21:00,
2013-02-16 10:22:00,58.5,34.9,29.59,WSW,248,1.1,1.1,41,0.00,,---,0.00,VWS V14.01,2013-02-16 08:22:00,
2013-02-16 10:23:00,58.6,35.0,29.59,WSW,248,0.0,1.1,41,0.00,,---,0.00,VWS V14.01,2013-02-16 08:23:00,
2013-02-16 10:24:00,59.2,35.5,29.59,WNW,292,2.2,2.2,41,0.00,,---,0.00,VWS V14.01,2013-02-16 08:24:00,
2013-02-16 10:25:00,59.4,35.7,29.59,WNW,292,0.0,2.2,41,0.00,,---,0.00,VWS V14.01,2013-02-16 08:25:00,
2013-02-16 10:26:00,59.5,35.8,29.59,West,270,2.0,2.0,41,0.00,,---,0.00,VWS V14.01,2013-02-16 08:26:00,
2013-02-16 10:27:00,59.7,36.0,29.59,WSW,248,0.0,2.0,41,0.00,,---,0.00,VWS V14.01,2013-02-16 08:27:00,
2013-02-16 10:28:00,60.1,35.7,29.59,South,180,2.5,2.5,40,0.00,,---,0.00,VWS V14.01,2013-02-16 08:28:00,
2013-02-16 10:30:00,60.4,36.0,29.59,South,180,0.0,2.5,40,0.00,,---,0.00,VWS V14.01,2013-02-16 08:30:00,
2013-02-16 10:31:00,60.4,35.4,29.59,South,180,0.0,0.0,39,0.00,,---,0.00,VWS V14.01,2013-02-16 08:31:00,
2013-02-16 10:32:00,60.4,36.0,29.59,South,180,0.0,0.0,40,0.00,,---,0.00,VWS V14.01,2013-02-16 08:32:00,
2013-02-16 10:33:00,60.1,34.4,29.59,SSE,158,1.6,1.6,38,0.00,,---,0.00,VWS V14.01,2013-02-16 08:33:00,
2013-02-16 10:34:00,60.1,35.1,29.59,SE,135,0.0,1.6,39,0.00,,---,0.00,VWS V14.01,2013-02-16 08:34:00,
2013-02-16 10:35:00,59.9,34.2,29.59,SE,135,0.0,0.0,38,0.00,,---,0.00,VWS V14.01,2013-02-16 08:35:00,
2013-02-16 10:36:00,59.7,34.1,29.59,South,180,0.0,0.0,38,0.00,,---,0.00,VWS V14.01,2013-02-16 08:36:00,
2013-02-16 10:37:00,59.4,33.8,29.59,South,180,0.9,0.9,38,0.00,,---,0.00,VWS V14.01,2013-02-16 08:37:00,
2013-02-16 10:38:00,59.2,33.6,29.62,SSW,202,0.0,0.9,38,0.00,,---,0.00,VWS V14.01,2013-02-16 08:38:00,
2013-02-16 10:39:00,58.6,33.1,29.62,SE,135,1.3,1.3,38,0.00,,---,0.00,VWS V14.01,2013-02-16 08:39:00,
2013-02-16 10:40:00,58.6,33.1,29.62,NNW,338,1.6,1.6,38,0.00,,---,0.00,VWS V14.01,2013-02-16 08:40:00,
2013-02-16 10:41:00,58.1,32.7,29.62,NNW,338,2.9,2.9,38,0.00,,---,0.00,VWS V14.01,2013-02-16 08:41:00,
2013-02-16 10:42:00,57.9,31.8,29.62,North,0,2.2,2.9,37,0.00,,---,0.00,VWS V14.01,2013-02-16 08:42:00,
2013-02-16 10:44:00,57.6,31.5,29.62,West,270,1.3,2.2,37,0.00,,---,0.00,VWS V14.01,2013-02-16 08:44:00,
2013-02-16 10:45:00,57.4,31.3,29.62,WNW,292,1.6,1.6,37,0.00,,---,0.00,VWS V14.01,2013-02-16 08:45:00,
2013-02-16 10:46:00,57.2,31.2,29.62,WNW,292,0.0,1.6,37,0.00,,---,0.00,VWS V14.01,2013-02-16 08:46:00,
2013-02-16 10:47:00,57.0,31.7,29.62,NNW,338,1.3,1.3,38,0.00,,---,0.00,VWS V14.01,2013-02-16 08:47:00,
2013-02-16 10:48:00,57.0,31.7,29.62,NNW,338,2.5,2.5,38,0.00,,---,0.00,VWS V14.01,2013-02-16 08:48:00,
2013-02-16 10:49:00,57.0,31.7,29.62,North,0,2.7,2.7,38,0.00,,---,0.00,VWS V14.01,2013-02-16 08:49:00,
2013-02-16 10:50:00,56.7,31.4,29.62,North,0,1.6,2.7,38,0.00,,---,0.00,VWS V14.01,2013-02-16 08:50:00,
2013-02-16 10:51:00,56.7,31.4,29.62,North,0,0.0,1.6,38,0.00,,---,0.00,VWS V14.01,2013-02-16 08:51:00,
2013-02-16 10:52:00,56.7,31.4,29.62,North,0,0.0,0.0,38,0.00,,---,0.00,VWS V14.01,2013-02-16 08:52:00,
2013-02-16 10:53:00,56.7,32.0,29.59,North,0,0.9,0.9,39,0.00,,---,0.00,VWS V14.01,2013-02-16 08:53:00,
2013-02-16 10:54:00,56.7,32.0,29.59,NNE,22,1.6,1.6,39,0.00,,---,0.00,VWS V14.01,2013-02-16 08:54:00,
2013-02-16 10:55:00,56.5,31.8,29.59,NNE,22,2.0,2.0,39,0.00,,---,0.00,VWS V14.01,2013-02-16 08:55:00,
2013-02-16 10:56:00,56.5,31.8,29.59,NNE,22,2.7,2.7,39,0.00,,---,0.00,VWS V14.01,2013-02-16 08:56:00,
2013-02-16 10:57:00,56.3,31.7,29.59,NNE,22,1.3,2.7,39,0.00,,---,0.00,VWS V14.01,2013-02-16 08:57:00,
2013-02-16 10:58:00,56.3,31.7,29.59,NNE,22,1.3,1.3,39,0.00,,---,0.00,VWS V14.01,2013-02-16 08:58:00,
2013-02-16 10:59:00,56.3,31.7,29.59,NNE,22,1.1,1.3,39,0.00,,---,0.00,VWS V14.01,2013-02-16 08:59:00,
2013-02-16 11:00:00,56.5,31.8,29.59,ENE,68,2.9,2.9,39,0.00,,---,0.00,VWS V14.01,2013-02-16 09:00:00,
2013-02-16 11:01:00,56.5,32.5,29.59,ESE,112,2.2,2.9,40,0.00,,---,0.00,VWS V14.01,2013-02-16 09:01:00,
2013-02-16 11:02:00,56.5,32.5,29.59,East,90,0.9,2.2,40,0.00,,---,0.00,VWS V14.01,2013-02-16 09:02:00,
2013-02-16 11:04:00,56.8,32.8,29.59,North,0,1.1,1.1,40,0.00,,---,0.00,VWS V14.01,2013-02-16 09:04:00,
2013-02-16 11:05:00,56.8,32.8,29.59,North,0,1.6,1.6,40,0.00,,---,0.00,VWS V14.01,2013-02-16 09:05:00,
2013-02-16 11:15:00,57.0,32.3,29.62,South,180,2.9,2.9,39,0.00,,---,0.00,VWS V14.01,2013-02-16 09:15:00,
2013-02-16 11:20:00,57.2,32.5,29.62,East,90,2.0,2.0,39,0.00,,---,0.00,VWS V14.01,2013-02-16 09:20:00,
2013-02-16 11:25:00,57.9,33.1,29.62,South,180,0.0,0.9,39,0.00,,---,0.00,VWS V14.01,2013-02-16 09:25:00,
2013-02-16 11:30:00,58.1,33.3,29.59,SSW,202,1.3,2.9,39,0.00,,---,0.00,VWS V14.01,2013-02-16 09:30:00,
2013-02-16 11:35:00,58.6,33.8,29.59,West,270,2.2,2.2,39,0.00,,---,0.00,VWS V14.01,2013-02-16 09:35:00,
2013-02-16 11:40:00,58.5,33.0,29.59,SW,225,0.0,1.6,38,0.00,,---,0.00,VWS V14.01,2013-02-16 09:40:00,
2013-02-16 11:46:00,58.8,32.6,29.59,SSE,158,0.9,2.2,37,0.00,,---,0.00,VWS V14.01,2013-02-16 09:46:00,
2013-02-16 11:51:00,58.8,32.6,29.59,SSE,158,2.7,3.6,37,0.00,,---,0.00,VWS V14.01,2013-02-16 09:51:00,
2013-02-16 11:56:00,58.8,32.6,29.59,NNW,338,2.5,2.9,37,0.00,,---,0.00,VWS V14.01,2013-02-16 09:56:00,
2013-02-16 12:01:00,59.0,32.8,29.59,NNE,22,0.0,1.6,37,0.00,,---,0.00,VWS V14.01,2013-02-16 10:01:00,
2013-02-16 12:06:00,59.9,33.6,29.59,ESE,112,2.0,2.5,37,0.00,,---,0.00,VWS V14.01,2013-02-16 10:06:00,
2013-02-16 12:11:00,60.8,33.7,29.59,WSW,248,0.9,0.9,36,0.00,,---,0.00,VWS V14.01,2013-02-16 10:11:00,
2013-02-16 12:16:00,59.7,32.0,29.59,SSE,158,1.3,2.0,35,0.00,,---,0.00,VWS V14.01,2013-02-16 10:16:00,
2013-02-16 12:21:00,59.0,31.4,29.59,South,180,1.3,1.3,35,0.00,,---,0.00,VWS V14.01,2013-02-16 10:21:00,
2013-02-16 12:26:00,58.5,31.6,29.59,WSW,248,1.1,1.1,36,0.00,,---,0.00,VWS V14.01,2013-02-16 10:26:00,
2013-02-16 12:31:00,58.6,31.8,29.59,North,0,2.2,2.5,36,0.00,,---,0.00,VWS V14.01,2013-02-16 10:31:00,
2013-02-16 12:36:00,60.4,33.4,29.59,ESE,112,1.1,2.5,36,0.00,,---,0.00,VWS V14.01,2013-02-16 10:36:00,
2013-02-16 12:41:00,61.7,33.8,29.59,NNW,338,1.6,3.6,35,0.00,,---,0.00,VWS V14.01,2013-02-16 10:41:00,
2013-02-16 12:46:00,60.3,31.8,29.59,SE,135,2.5,3.8,34,0.00,,---,0.00,VWS V14.01,2013-02-16 10:46:00,
2013-02-16 12:52:00,60.1,32.4,29.59,SE,135,1.3,1.3,35,0.00,,---,0.00,VWS V14.01,2013-02-16 10:52:00,
2013-02-16 12:57:00,60.1,32.4,29.59,NE,45,1.1,1.3,35,0.00,,---,0.00,VWS V14.01,2013-02-16 10:57:00,
2013-02-16 13:02:00,59.4,31.0,29.59,SSE,158,2.7,3.8,34,0.00,,---,0.00,VWS V14.01,2013-02-16 11:02:00,
2013-02-16 13:07:00,59.2,31.6,29.59,SW,225,2.9,2.9,35,0.00,,---,0.00,VWS V14.01,2013-02-16 11:07:00,
2013-02-16 13:12:00,58.8,31.2,29.59,East,90,1.1,1.3,35,0.00,,---,0.00,VWS V14.01,2013-02-16 11:12:00,
2013-02-16 13:17:00,58.8,31.2,29.59,SE,135,2.5,2.5,35,0.00,,---,0.00,VWS V14.01,2013-02-16 11:17:00,
2013-02-16 13:22:00,58.5,30.9,29.59,West,270,1.6,2.2,35,0.00,,---,0.00,VWS V14.01,2013-02-16 11:22:00,
2013-02-16 13:27:00,58.6,31.1,29.59,WSW,248,4.3,5.4,35,0.00,,---,0.00,VWS V14.01,2013-02-16 11:27:00,
2013-02-16 13:32:00,58.3,30.8,29.56,SSE,158,4.3,4.3,35,0.00,,---,0.00,VWS V14.01,2013-02-16 11:32:00,
2013-02-16 13:37:00,59.2,31.6,29.56,ESE,112,0.9,2.5,35,0.00,,---,0.00,VWS V14.01,2013-02-16 11:37:00,
2013-02-16 13:42:00,61.3,33.5,29.56,SE,135,3.6,3.6,35,0.00,,---,0.00,VWS V14.01,2013-02-16 11:42:00,
2013-02-16 13:47:00,61.3,32.8,29.56,ENE,68,1.6,2.0,34,0.00,,---,0.00,VWS V14.01,2013-02-16 11:47:00,
2013-02-16 13:53:00,60.8,31.5,29.56,NNW,338,0.9,2.9,33,0.00,,---,0.00,VWS V14.01,2013-02-16 11:53:00,
2013-02-16 13:58:00,60.8,31.5,29.56,NNE,22,0.9,1.1,33,0.00,,---,0.00,VWS V14.01,2013-02-16 11:58:00,
2013-02-16 14:03:00,59.5,30.4,29.56,South,180,1.3,2.5,33,0.00,,---,0.00,VWS V14.01,2013-02-16 12:03:00,
2013-02-16 14:08:00,59.9,31.5,29.56,SSE,158,0.0,0.9,34,0.00,,---,0.00,VWS V14.01,2013-02-16 12:08:00,
2013-02-16 14:13:00,59.9,31.5,29.56,NNW,338,2.9,2.9,34,0.00,,---,0.00,VWS V14.01,2013-02-16 12:13:00,
2013-02-16 14:18:00,59.9,31.5,29.56,NNE,22,1.3,2.0,34,0.00,,---,0.00,VWS V14.01,2013-02-16 12:18:00,
2013-02-16 14:23:00,59.5,31.2,29.56,SSW,202,2.2,3.6,34,0.00,,---,0.00,VWS V14.01,2013-02-16 12:23:00,
2013-02-16 14:28:00,59.7,31.3,29.56,ESE,112,3.4,3.4,34,0.00,,---,0.00,VWS V14.01,2013-02-16 12:28:00,
2013-02-16 14:33:00,59.7,30.6,29.56,SE,135,0.0,1.1,33,0.00,,---,0.00,VWS V14.01,2013-02-16 12:33:00,
2013-02-16 14:39:00,59.2,29.4,29.56,SSE,158,0.0,0.0,32,0.00,,---,0.00,VWS V14.01,2013-02-16 12:39:00,
2013-02-16 14:44:00,58.6,29.6,29.56,SE,135,3.8,5.6,33,0.00,,---,0.00,VWS V14.01,2013-02-16 12:44:00,
2013-02-16 14:49:00,59.4,30.3,29.56,East,90,4.7,4.7,33,0.00,,---,0.00,VWS V14.01,2013-02-16 12:49:00,
2013-02-16 14:54:00,59.2,30.1,29.56,NNW,338,2.5,2.9,33,0.00,,---,0.00,VWS V14.01,2013-02-16 12:54:00,
2013-02-16 14:59:00,59.2,30.1,29.56,SE,135,3.8,5.4,33,0.00,,---,0.00,VWS V14.01,2013-02-16 12:59:00,
2013-02-16 15:04:00,58.8,30.5,29.56,ESE,112,1.6,1.6,34,0.00,,---,0.00,VWS V14.01,2013-02-16 13:04:00,
2013-02-16 15:09:00,59.2,30.9,29.56,SW,225,0.0,0.9,34,0.00,,---,0.00,VWS V14.01,2013-02-16 13:09:00,
2013-02-16 15:14:00,59.4,30.3,29.56,South,180,3.1,3.8,33,0.00,,---,0.00,VWS V14.01,2013-02-16 13:14:00,
2013-02-16 15:19:00,58.6,29.6,29.56,ESE,112,2.5,5.8,33,0.00,,---,0.00,VWS V14.01,2013-02-16 13:19:00,
2013-02-16 15:24:00,58.5,29.5,29.56,NNE,22,2.2,5.4,33,0.00,,---,0.00,VWS V14.01,2013-02-16 13:24:00,
2013-02-16 15:29:00,58.1,29.9,29.56,ENE,68,2.0,3.6,34,0.00,,---,0.00,VWS V14.01,2013-02-16 13:29:00,
2013-02-16 15:35:00,58.1,29.9,29.56,SE,135,2.7,2.7,34,0.00,,---,0.00,VWS V14.01,2013-02-16 13:35:00,
2013-02-16 15:40:00,58.5,29.5,29.56,ESE,112,2.0,2.0,33,0.00,,---,0.00,VWS V14.01,2013-02-16 13:40:00,
2013-02-16 15:45:00,57.6,29.4,29.56,SSW,202,2.7,3.8,34,0.00,,---,0.00,VWS V14.01,2013-02-16 13:45:00,
2013-02-16 15:50:00,57.0,29.7,29.56,South,180,2.7,3.4,35,0.00,,---,0.00,VWS V14.01,2013-02-16 13:50:00,
2013-02-16 15:55:00,56.7,30.0,29.56,South,180,4.9,4.9,36,0.00,,---,0.00,VWS V14.01,2013-02-16 13:55:00,
2013-02-16 16:00:00,56.3,29.7,29.53,SSE,158,4.7,4.7,36,0.00,,---,0.00,VWS V14.01,2013-02-16 14:00:00,
2013-02-16 16:05:00,56.1,29.5,29.53,SE,135,2.0,3.4,36,0.00,,---,0.00,VWS V14.01,2013-02-16 14:05:00,
2013-02-16 16:10:00,55.9,29.4,29.53,SSE,158,3.1,3.1,36,0.00,,---,0.00,VWS V14.01,2013-02-16 14:10:00,
2013-02-16 16:15:00,55.8,29.2,29.56,North,0,1.6,3.4,36,0.00,,---,0.00,VWS V14.01,2013-02-16 14:15:00,
2013-02-16 16:21:00,55.8,29.2,29.56,NNW,338,2.5,2.5,36,0.00,,---,0.00,VWS V14.01,2013-02-16 14:21:00,
2013-02-16 16:26:00,55.8,29.2,29.56,NNW,338,0.0,1.6,36,0.00,,---,0.00,VWS V14.01,2013-02-16 14:26:00,
2013-02-16 16:31:00,56.3,29.7,29.56,East,90,0.9,2.0,36,0.00,,---,0.00,VWS V14.01,2013-02-16 14:31:00,
2013-02-16 16:36:00,56.7,30.0,29.56,ENE,68,0.0,1.6,36,0.00,,---,0.00,VWS V14.01,2013-02-16 14:36:00,
2013-02-16 16:41:00,56.5,29.2,29.56,WNW,292,3.1,3.1,35,0.00,,---,0.00,VWS V14.01,2013-02-16 14:41:00,
2013-02-16 16:46:00,56.7,29.3,29.53,ESE,112,1.1,2.5,35,0.00,,---,0.00,VWS V14.01,2013-02-16 14:46:00,
2013-02-16 16:51:00,56.7,29.3,29.53,South,180,3.4,3.8,35,0.00,,---,0.00,VWS V14.01,2013-02-16 14:51:00,
2013-02-16 16:56:00,56.5,29.2,29.53,NNW,338,1.6,2.7,35,0.00,,---,0.00,VWS V14.01,2013-02-16 14:56:00,
2013-02-16 17:01:00,56.3,29.0,29.56,SSW,202,2.0,2.0,35,0.00,,---,0.00,VWS V14.01,2013-02-16 15:01:00,
2013-02-16 17:06:00,56.3,29.0,29.56,WNW,292,4.7,4.7,35,0.00,,---,0.00,VWS V14.01,2013-02-16 15:06:00,
2013-02-16 17:11:00,56.1,28.9,29.56,South,180,2.2,3.4,35,0.00,,---,0.00,VWS V14.01,2013-02-16 15:11:00,
2013-02-16 17:16:00,55.9,28.7,29.56,ESE,112,1.1,2.9,35,0.00,,---,0.00,VWS V14.01,2013-02-16 15:16:00,
2013-02-16 17:21:00,55.9,28.7,29.56,East,90,2.7,2.7,35,0.00,,---,0.00,VWS V14.01,2013-02-16 15:21:00,
2013-02-16 17:26:00,55.9,28.7,29.56,North,0,2.9,2.9,35,0.00,,---,0.00,VWS V14.01,2013-02-16 15:26:00,
2013-02-16 17:31:00,54.7,28.9,29.56,North,0,1.6,2.5,37,0.00,,---,0.00,VWS V14.01,2013-02-16 15:31:00,
2013-02-16 17:36:00,54.7,28.9,29.56,North,0,2.5,2.5,37,0.00,,---,0.00,VWS V14.01,2013-02-16 15:36:00,
2013-02-16 17:41:00,54.0,29.6,29.56,North,0,2.0,2.5,39,0.00,,---,0.00,VWS V14.01,2013-02-16 15:41:00,
2013-02-16 17:46:00,53.8,30.0,29.56,NE,45,1.3,2.5,40,0.00,,---,0.00,VWS V14.01,2013-02-16 15:46:00,
2013-02-16 17:51:00,53.6,30.5,29.56,ESE,112,3.1,3.1,41,0.00,,---,0.00,VWS V14.01,2013-02-16 15:51:00,
2013-02-16 17:57:00,53.6,30.5,29.56,North,0,1.1,2.2,41,0.00,,---,0.00,VWS V14.01,2013-02-16 15:57:00,
2013-02-16 18:02:00,53.2,31.3,29.53,NNE,22,2.9,3.1,43,0.00,,---,0.00,VWS V14.01,2013-02-16 16:02:00,
2013-02-16 18:07:00,53.1,31.7,29.53,ENE,68,2.0,4.0,44,0.00,,---,0.00,VWS V14.01,2013-02-16 16:07:00,
2013-02-16 18:12:00,53.1,32.3,29.53,East,90,2.9,3.1,45,0.00,,---,0.00,VWS V14.01,2013-02-16 16:12:00,
2013-02-16 18:17:00,53.1,32.3,29.56,ESE,112,2.7,3.6,45,0.00,,---,0.00,VWS V14.01,2013-02-16 16:17:00,
2013-02-16 18:22:00,52.9,32.1,29.56,ENE,68,2.5,2.7,45,0.00,,---,0.00,VWS V14.01,2013-02-16 16:22:00,
2013-02-16 18:27:00,52.9,32.1,29.56,NNE,22,2.5,4.3,45,0.00,,---,0.00,VWS V14.01,2013-02-16 16:27:00,
2013-02-16 18:32:00,52.9,32.7,29.53,East,90,2.7,2.7,46,0.00,,---,0.00,VWS V14.01,2013-02-16 16:32:00,
2013-02-16 18:37:00,52.9,32.7,29.53,NNE,22,2.2,2.5,46,0.00,,---,0.00,VWS V14.01,2013-02-16 16:37:00,
2013-02-16 18:42:00,52.7,32.5,29.53,North,0,3.6,3.6,46,0.00,,---,0.00,VWS V14.01,2013-02-16 16:42:00,
2013-02-16 18:47:00,52.7,33.0,29.56,NNE,22,4.3,4.7,47,0.00,,---,0.00,VWS V14.01,2013-02-16 16:47:00,
2013-02-16 18:52:00,52.7,33.0,29.56,NNW,338,2.9,5.8,47,0.00,,---,0.00,VWS V14.01,2013-02-16 16:52:00,
2013-02-16 18:57:00,52.5,32.9,29.56,NNE,22,3.8,5.8,47,0.00,,---,0.00,VWS V14.01,2013-02-16 16:57:00,
2013-02-16 19:02:00,52.5,32.9,29.53,East,90,2.5,2.5,47,0.00,,---,0.00,VWS V14.01,2013-02-16 17:02:00,
2013-02-16 19:08:00,52.5,32.9,29.53,East,90,2.5,2.5,47,0.00,,---,0.00,VWS V14.01,2013-02-16 17:08:00,
2013-02-16 19:13:00,52.5,32.9,29.53,North,0,3.4,3.4,47,0.00,,---,0.00,VWS V14.01,2013-02-16 17:13:00,
2013-02-16 19:18:00,52.3,32.7,29.53,NE,45,1.6,2.5,47,0.00,,---,0.00,VWS V14.01,2013-02-16 17:18:00,
2013-02-16 19:23:00,52.3,33.2,29.53,ENE,68,2.2,3.8,48,0.00,,---,0.00,VWS V14.01,2013-02-16 17:23:00,
2013-02-16 19:28:00,52.5,33.4,29.53,NNE,22,3.1,3.1,48,0.00,,---,0.00,VWS V14.01,2013-02-16 17:28:00,
2013-02-16 19:33:00,52.5,33.4,29.53,NNE,22,2.5,2.5,48,0.00,,---,0.00,VWS V14.01,2013-02-16 17:33:00,
2013-02-16 19:38:00,52.5,33.4,29.53,NNE,22,3.1,3.1,48,0.00,,---,0.00,VWS V14.01,2013-02-16 17:38:00,
2013-02-16 19:43:00,52.3,33.2,29.53,NNE,22,2.0,2.0,48,0.00,,---,0.00,VWS V14.01,2013-02-16 17:43:00,
2013-02-16 19:48:00,52.2,32.6,29.56,NNE,22,2.5,3.4,47,0.00,,---,0.00,VWS V14.01,2013-02-16 17:48:00,
2013-02-16 19:53:00,52.2,32.0,29.56,NNE,22,0.9,1.6,46,0.00,,---,0.00,VWS V14.01,2013-02-16 17:53:00,
2013-02-16 19:58:00,52.2,32.0,29.56,ENE,68,1.3,2.0,46,0.00,,---,0.00,VWS V14.01,2013-02-16 17:58:00,
2013-02-16 20:03:00,52.2,32.0,29.56,NNE,22,2.7,2.7,46,0.00,,---,0.00,VWS V14.01,2013-02-16 18:03:00,
2013-02-16 20:08:00,52.2,32.0,29.56,East,90,2.2,5.6,46,0.00,,---,0.00,VWS V14.01,2013-02-16 18:08:00,
2013-02-16 20:14:00,52.2,32.0,29.56,East,90,2.9,2.9,46,0.00,,---,0.00,VWS V14.01,2013-02-16 18:14:00,
2013-02-16 20:19:00,52.0,31.3,29.56,ESE,112,2.5,4.3,45,0.00,,---,0.00,VWS V14.01,2013-02-16 18:19:00,
2013-02-16 20:24:00,51.6,31.5,29.56,ENE,68,1.6,3.1,46,0.00,,---,0.00,VWS V14.01,2013-02-16 18:24:00,
2013-02-16 20:29:00,51.6,31.5,29.56,North,0,2.5,2.5,46,0.00,,---,0.00,VWS V14.01,2013-02-16 18:29:00,
2013-02-16 20:34:00,51.6,31.5,29.56,NNE,22,1.6,1.6,46,0.00,,---,0.00,VWS V14.01,2013-02-16 18:34:00,
2013-02-16 20:39:00,50.7,32.8,29.56,North,0,2.5,2.5,50,0.00,,---,0.00,VWS V14.01,2013-02-16 18:39:00,
2013-02-16 20:44:00,50.7,34.2,29.53,SSE,158,4.0,4.0,53,0.00,,---,0.00,VWS V14.01,2013-02-16 18:44:00,
2013-02-16 20:49:00,50.5,34.1,29.53,NNW,338,2.0,2.5,53,0.00,,---,0.00,VWS V14.01,2013-02-16 18:49:00,
2013-02-16 20:54:00,50.2,34.2,29.53,NE,45,0.9,1.6,54,0.00,,---,0.00,VWS V14.01,2013-02-16 18:54:00,
2013-02-16 20:59:00,50.0,34.5,29.53,NNE,22,2.7,3.6,55,0.00,,---,0.00,VWS V14.01,2013-02-16 18:59:00,
2013-02-16 21:04:00,49.6,35.0,29.53,ENE,68,1.1,2.7,57,0.00,,---,0.00,VWS V14.01,2013-02-16 19:04:00,
2013-02-16 21:09:00,49.6,35.0,29.53,NNE,22,3.4,3.4,57,0.00,,---,0.00,VWS V14.01,2013-02-16 19:09:00,
2013-02-16 21:14:00,49.6,35.0,29.56,North,0,3.8,4.7,57,0.00,,---,0.00,VWS V14.01,2013-02-16 19:14:00,
2013-02-16 21:20:00,49.5,35.3,29.56,North,0,4.3,4.3,58,0.00,,---,0.00,VWS V14.01,2013-02-16 19:20:00,
2013-02-16 21:25:00,49.5,35.7,29.56,NNE,22,3.6,4.3,59,0.00,,---,0.00,VWS V14.01,2013-02-16 19:25:00,
2013-02-16 21:30:00,49.3,35.6,29.56,NE,45,5.6,5.6,59,0.00,,---,0.00,VWS V14.01,2013-02-16 19:30:00,
2013-02-16 21:35:00,48.9,35.7,29.56,North,0,6.5,6.5,60,0.00,,---,0.00,VWS V14.01,2013-02-16 19:35:00,
2013-02-16 21:40:00,48.9,36.1,29.56,NNE,22,4.0,4.0,61,0.00,,---,0.00,VWS V14.01,2013-02-16 19:40:00,
2013-02-16 21:45:00,48.9,36.1,29.56,North,0,4.3,5.8,61,0.00,,---,0.00,VWS V14.01,2013-02-16 19:45:00,
2013-02-16 21:50:00,48.9,36.5,29.56,North,0,4.5,4.7,62,0.00,,---,0.00,VWS V14.01,2013-02-16 19:50:00,
2013-02-16 21:55:00,48.7,36.7,29.56,North,0,4.3,4.3,63,0.00,,---,0.00,VWS V14.01,2013-02-16 19:55:00,
2013-02-16 22:00:00,48.7,36.7,29.56,ENE,68,1.6,2.9,63,0.00,,---,0.00,VWS V14.01,2013-02-16 20:00:00,
2013-02-16 22:05:00,48.7,37.1,29.56,East,90,3.4,4.9,64,0.00,,---,0.00,VWS V14.01,2013-02-16 20:05:00,
2013-02-16 22:10:00,48.6,37.0,29.56,ESE,112,2.9,3.4,64,0.00,,---,0.00,VWS V14.01,2013-02-16 20:10:00,
2013-02-16 22:15:00,48.6,37.3,29.56,ENE,68,3.6,4.3,65,0.00,,---,0.00,VWS V14.01,2013-02-16 20:15:00,
2013-02-16 22:29:00,48.4,37.2,29.59,NNE,22,2.2,2.2,65,0.00,,---,0.00,VWS V14.01,2013-02-16 20:29:00,
2013-02-16 22:30:00,48.4,37.2,29.56,ENE,68,2.9,2.9,65,0.00,,---,0.00,VWS V14.01,2013-02-16 20:30:00,
2013-02-16 22:31:00,48.4,37.2,29.56,ENE,68,4.3,4.3,65,0.00,,---,0.00,VWS V14.01,2013-02-16 20:31:00,
2013-02-16 22:32:00,48.4,37.2,29.56,North,0,4.0,4.3,65,0.00,,---,0.00,VWS V14.01,2013-02-16 20:32:00,
2013-02-16 22:33:00,48.4,37.2,29.56,NNE,22,2.0,4.0,65,0.00,,---,0.00,VWS V14.01,2013-02-16 20:33:00,
2013-02-16 22:34:00,48.4,37.2,29.56,East,90,2.5,2.5,65,0.00,,---,0.00,VWS V14.01,2013-02-16 20:34:00,
2013-02-16 22:35:00,48.4,37.2,29.56,East,90,3.4,3.4,65,0.00,,---,0.00,VWS V14.01,2013-02-16 20:35:00,
2013-02-16 22:36:00,48.4,37.2,29.56,NNE,22,2.7,3.4,65,0.00,,---,0.00,VWS V14.01,2013-02-16 20:36:00,
2013-02-16 22:37:00,48.4,37.6,29.56,NNE,22,2.9,2.9,66,0.00,,---,0.00,VWS V14.01,2013-02-16 20:37:00,
2013-02-16 22:38:00,48.4,37.6,29.53,ENE,68,2.0,2.9,66,0.00,,---,0.00,VWS V14.01,2013-02-16 20:38:00,
2013-02-16 22:39:00,48.4,37.6,29.53,North,0,3.1,3.1,66,0.00,,---,0.00,VWS V14.01,2013-02-16 20:39:00,
2013-02-16 22:40:00,48.4,37.6,29.53,NNE,22,4.0,4.0,66,0.00,,---,0.00,VWS V14.01,2013-02-16 20:40:00,
2013-02-16 22:41:00,48.4,37.6,29.53,NNE,22,1.6,4.0,66,0.00,,---,0.00,VWS V14.01,2013-02-16 20:41:00,
2013-02-16 22:42:00,48.4,37.6,29.53,NE,45,3.4,3.4,66,0.00,,---,0.00,VWS V14.01,2013-02-16 20:42:00,
2013-02-16 22:43:00,48.4,37.6,29.53,NNE,22,2.0,3.4,66,0.00,,---,0.00,VWS V14.01,2013-02-16 20:43:00,
2013-02-16 22:44:00,48.4,37.6,29.53,NNE,22,0.0,2.0,66,0.00,,---,0.00,VWS V14.01,2013-02-16 20:44:00,
2013-02-16 22:45:00,48.4,37.6,29.53,North,0,3.4,3.4,66,0.00,,---,0.00,VWS V14.01,2013-02-16 20:45:00,
2013-02-16 22:46:00,48.4,37.6,29.53,NNE,22,3.6,3.6,66,0.00,,---,0.00,VWS V14.01,2013-02-16 20:46:00,
2013-02-16 22:47:00,48.4,37.9,29.53,NNE,22,4.0,4.0,67,0.00,,---,0.00,VWS V14.01,2013-02-16 20:47:00,
2013-02-16 22:48:00,48.4,37.9,29.53,NNE,22,3.1,4.0,67,0.00,,---,0.00,VWS V14.01,2013-02-16 20:48:00,
2013-02-16 22:49:00,48.4,37.9,29.53,NNW,338,3.6,3.6,67,0.00,,---,0.00,VWS V14.01,2013-02-16 20:49:00,
2013-02-16 22:50:00,48.4,37.9,29.53,NNE,22,2.0,3.6,67,0.00,,---,0.00,VWS V14.01,2013-02-16 20:50:00,
2013-02-16 22:51:00,48.4,37.9,29.53,North,0,2.7,2.7,67,0.00,,---,0.00,VWS V14.01,2013-02-16 20:51:00,
2013-02-16 22:52:00,48.6,38.1,29.53,NNE,22,4.3,4.3,67,0.00,,---,0.00,VWS V14.01,2013-02-16 20:52:00,
2013-02-16 22:53:00,48.6,38.1,29.56,NNE,22,2.7,4.3,67,0.00,,---,0.00,VWS V14.01,2013-02-16 20:53:00,
2013-02-16 22:54:00,48.6,38.1,29.56,North,0,4.9,4.9,67,0.00,,---,0.00,VWS V14.01,2013-02-16 20:54:00,
2013-02-16 22:55:00,48.6,38.1,29.56,North,0,1.3,4.9,67,0.00,,---,0.00,VWS V14.01,2013-02-16 20:55:00,
2013-02-16 22:56:00,48.6,37.7,29.56,North,0,2.9,2.9,66,0.00,,---,0.00,VWS V14.01,2013-02-16 20:56:00,
2013-02-16 22:57:00,48.6,37.7,29.56,North,0,2.5,2.9,66,0.00,,---,0.00,VWS V14.01,2013-02-16 20:57:00,
2013-02-16 22:58:00,48.6,37.7,29.56,NNE,22,3.4,3.4,66,0.00,,---,0.00,VWS V14.01,2013-02-16 20:58:00,
2013-02-16 22:59:00,48.6,37.7,29.56,North,0,2.5,3.4,66,0.00,,---,0.00,VWS V14.01,2013-02-16 20:59:00,
2013-02-16 23:00:00,48.6,37.7,29.56,NNE,22,1.6,2.5,66,0.00,,---,0.00,VWS V14.01,2013-02-16 21:00:00,
2013-02-16 23:01:00,48.6,37.7,29.56,NNE,22,1.1,1.6,66,0.00,,---,0.00,VWS V14.01,2013-02-16 21:01:00,
2013-02-16 23:02:00,48.6,37.7,29.56,NNE,22,2.5,2.5,66,0.00,,---,0.00,VWS V14.01,2013-02-16 21:02:00,
2013-02-16 23:03:00,48.6,37.7,29.56,NNE,22,4.0,4.0,66,0.00,,---,0.00,VWS V14.01,2013-02-16 21:03:00,
2013-02-16 23:04:00,48.6,37.7,29.56,NNE,22,1.1,4.0,66,0.00,,---,0.00,VWS V14.01,2013-02-16 21:04:00,
2013-02-16 23:05:00,48.6,37.7,29.56,NNE,22,2.0,2.0,66,0.00,,---,0.00,VWS V14.01,2013-02-16 21:05:00,
2013-02-16 23:06:00,48.6,37.7,29.56,North,0,1.1,2.0,66,0.00,,---,0.00,VWS V14.01,2013-02-16 21:06:00,
2013-02-16 23:07:00,48.6,37.7,29.56,NNE,22,2.7,2.7,66,0.00,,---,0.00,VWS V14.01,2013-02-16 21:07:00,
2013-02-16 23:08:00,48.6,37.7,29.56,North,0,3.1,3.1,66,0.00,,---,0.00,VWS V14.01,2013-02-16 21:08:00,
2013-02-16 23:09:00,48.6,37.7,29.56,North,0,2.7,3.1,66,0.00,,---,0.00,VWS V14.01,2013-02-16 21:09:00,
2013-02-16 23:10:00,48.6,38.1,29.56,North,0,2.0,2.7,67,0.00,,---,0.00,VWS V14.01,2013-02-16 21:10:00,
2013-02-16 23:11:00,48.6,38.1,29.56,North,0,4.0,4.0,67,0.00,,---,0.00,VWS V14.01,2013-02-16 21:11:00,
2013-02-16 23:12:00,48.6,38.1,29.56,North,0,3.6,4.0,67,0.00,,---,0.00,VWS V14.01,2013-02-16 21:12:00,
2013-02-16 23:13:00,48.6,38.1,29.56,North,0,2.2,3.6,67,0.00,,---,0.00,VWS V14.01,2013-02-16 21:13:00,
2013-02-16 23:14:00,48.6,38.1,29.56,North,0,2.0,2.2,67,0.00,,---,0.00,VWS V14.01,2013-02-16 21:14:00,
2013-02-16 23:15:00,48.6,38.1,29.56,North,0,2.5,2.5,67,0.00,,---,0.00,VWS V14.01,2013-02-16 21:15:00,
2013-02-16 23:16:00,48.6,38.1,29.56,NNE,22,1.6,2.5,67,0.00,,---,0.00,VWS V14.01,2013-02-16 21:16:00,
2013-02-16 23:17:00,48.6,38.1,29.56,NNE,22,2.0,2.0,67,0.00,,---,0.00,VWS V14.01,2013-02-16 21:17:00,
2013-02-16 23:18:00,48.6,38.1,29.56,NNE,22,1.3,2.0,67,0.00,,---,0.00,VWS V14.01,2013-02-16 21:18:00,
2013-02-16 23:19:00,48.6,38.1,29.56,NNE,22,0.0,1.3,67,0.00,,---,0.00,VWS V14.01,2013-02-16 21:19:00,
2013-02-16 23:20:00,48.6,38.1,29.56,East,90,2.7,2.7,67,0.00,,---,0.00,VWS V14.01,2013-02-16 21:20:00,
2013-02-16 23:21:00,48.6,38.1,29.56,ENE,68,1.6,2.7,67,0.00,,---,0.00,VWS V14.01,2013-02-16 21:21:00,
2013-02-16 23:22:00,48.6,38.1,29.56,ENE,68,1.3,1.6,67,0.00,,---,0.00,VWS V14.01,2013-02-16 21:22:00,
2013-02-16 23:23:00,48.6,38.1,29.56,ENE,68,3.4,3.4,67,0.00,,---,0.00,VWS V14.01,2013-02-16 21:23:00,
2013-02-16 23:24:00,48.6,38.1,29.56,NNE,22,2.0,3.4,67,0.00,,---,0.00,VWS V14.01,2013-02-16 21:24:00,
2013-02-16 23:25:00,48.6,38.1,29.56,North,0,2.9,2.9,67,0.00,,---,0.00,VWS V14.01,2013-02-16 21:25:00,
2013-02-16 23:26:00,48.6,38.1,29.56,NNE,22,2.7,2.9,67,0.00,,---,0.00,VWS V14.01,2013-02-16 21:26:00,
2013-02-16 23:27:00,48.6,38.1,29.56,NNE,22,2.7,2.7,67,0.00,,---,0.00,VWS V14.01,2013-02-16 21:27:00,
2013-02-16 23:28:00,48.6,38.1,29.56,NNE,22,3.1,3.1,67,0.00,,---,0.00,VWS V14.01,2013-02-16 21:28:00,
2013-02-16 23:29:00,48.6,38.1,29.56,NNE,22,2.5,3.1,67,0.00,,---,0.00,VWS V14.01,2013-02-16 21:29:00,
2013-02-16 23:30:00,48.6,38.1,29.56,NNE,22,2.9,2.9,67,0.00,,---,0.00,VWS V14.01,2013-02-16 21:30:00,
2013-02-16 23:31:00,48.6,38.1,29.56,North,0,3.4,3.4,67,0.00,,---,0.00,VWS V14.01,2013-02-16 21:31:00,
2013-02-16 23:32:00,48.6,38.1,29.56,North,0,2.7,3.4,67,0.00,,---,0.00,VWS V14.01,2013-02-16 21:32:00,
2013-02-16 23:33:00,48.6,38.1,29.56,North,0,1.3,2.7,67,0.00,,---,0.00,VWS V14.01,2013-02-16 21:33:00,
2013-02-16 23:34:00,48.6,38.1,29.56,North,0,1.1,1.3,67,0.04,,---,0.04,VWS V14.01,2013-02-16 21:34:00,
2013-02-16 23:35:00,48.6,38.1,29.56,North,0,0.0,1.1,67,0.04,,---,0.04,VWS V14.01,2013-02-16 21:35:00,
2013-02-16 23:36:00,48.6,38.1,29.56,NNW,338,2.2,2.2,67,0.04,,---,0.04,VWS V14.01,2013-02-16 21:36:00,
2013-02-16 23:37:00,48.6,38.1,29.56,NNW,338,1.3,2.2,67,0.04,,---,0.04,VWS V14.01,2013-02-16 21:37:00,
2013-02-16 23:38:00,48.6,38.1,29.56,North,0,2.5,2.5,67,0.04,,---,0.04,VWS V14.01,2013-02-16 21:38:00,
2013-02-16 23:39:00,48.6,38.1,29.56,North,0,2.5,2.5,67,0.04,,---,0.04,VWS V14.01,2013-02-16 21:39:00,
2013-02-16 23:40:00,48.7,38.3,29.56,NNE,22,2.2,2.5,67,0.04,,---,0.04,VWS V14.01,2013-02-16 21:40:00,
2013-02-16 23:41:00,48.7,38.3,29.56,NNE,22,3.1,3.1,67,0.04,,---,0.04,VWS V14.01,2013-02-16 21:41:00,
2013-02-16 23:42:00,48.7,38.3,29.56,NNE,22,1.6,3.1,67,0.04,,---,0.04,VWS V14.01,2013-02-16 21:42:00,
2013-02-16 23:43:00,48.7,38.3,29.56,East,90,2.5,2.5,67,0.04,,---,0.04,VWS V14.01,2013-02-16 21:43:00,
2013-02-16 23:44:00,48.7,38.3,29.56,NNE,22,3.1,3.1,67,0.04,,---,0.04,VWS V14.01,2013-02-16 21:44:00,
2013-02-16 23:45:00,48.6,38.1,29.56,North,0,3.1,3.1,67,0.04,,---,0.04,VWS V14.01,2013-02-16 21:45:00,
2013-02-16 23:46:00,48.6,38.1,29.56,North,0,2.0,3.1,67,0.04,,---,0.04,VWS V14.01,2013-02-16 21:46:00,
2013-02-16 23:47:00,48.6,38.1,29.56,NNE,22,0.9,2.0,67,0.04,,---,0.04,VWS V14.01,2013-02-16 21:47:00,
2013-02-16 23:48:00,48.6,38.1,29.56,NNE,22,0.9,0.9,67,0.04,,---,0.04,VWS V14.01,2013-02-16 21:48:00,
2013-02-16 23:49:00,48.6,38.1,29.56,NE,45,0.0,0.9,67,0.04,,---,0.04,VWS V14.01,2013-02-16 21:49:00,
2013-02-16 23:50:00,48.6,38.1,29.56,NE,45,0.0,0.0,67,0.04,,---,0.04,VWS V14.01,2013-02-16 21:50:00,
2013-02-16 23:51:00,48.4,37.9,29.56,NE,45,1.6,1.6,67,0.04,,---,0.04,VWS V14.01,2013-02-16 21:51:00,
2013-02-16 23:52:00,48.4,37.9,29.56,NNE,22,2.7,2.7,67,0.08,,---,0.08,VWS V14.01,2013-02-16 21:52:00,
2013-02-16 23:53:00,48.4,37.9,29.56,NNE,22,1.3,2.7,67,0.08,,---,0.08,VWS V14.01,2013-02-16 21:53:00,
2013-02-16 23:54:00,48.4,37.9,29.56,NNE,22,1.1,1.3,67,0.08,,---,0.08,VWS V14.01,2013-02-16 21:54:00,
2013-02-16 23:55:00,48.4,37.9,29.56,East,90,2.9,2.9,67,0.08,,---,0.08,VWS V14.01,2013-02-16 21:55:00,
2013-02-16 23:56:00,48.4,37.9,29.56,East,90,0.0,2.9,67,0.08,,---,0.08,VWS V14.01,2013-02-16 21:56:00,
2013-02-16 23:57:00,48.4,37.9,29.56,East,90,0.9,0.9,67,0.08,,---,0.08,VWS V14.01,2013-02-16 21:57:00,
2013-02-16 23:58:00,48.4,37.9,29.56,East,90,2.0,2.0,67,0.08,,---,0.08,VWS V14.01,2013-02-16 21:58:00,
2013-02-16 23:59:00,48.4,37.9,29.56,NNE,22,2.5,2.5,67,0.08,,---,0.08,VWS V14.01,2013-02-16 21:59:00,